SJX17 KSFO-RCTP

Flight info

Callsign SJX17
Flight time 14h 10m
Altitude 36000
Route GNNRR3 ALCOA R463 ALLBE DCT 37N135W 35N140W 34N150W 33N160W 33N170W 33N180E 33N170E 33N160E 30N150E 27N140E DCT MDE V75 TOPAT DCT NHC V91 MJC G581 HCN W4 TNN TNN1A
Aircraft A35K/H-SDE2E3GHIJ3J4J5LM1ORWXY/LB1D1

Departure

Time 2026-05-04 03:40
Airport San Francisco International Airport (KSFO)

Arrival

Time 2026-05-04 17:51
Airport Taiwan Taoyuan International Airport (RCTP)
Time Latitude Longitude Altitude Speed Heading
2026-05-04 02:07 37.61287 -122.38853 33 ft 0 kts 296°
2026-05-04 03:22 37.61282 -122.38843 23 ft 3 kts 296°
2026-05-04 03:22 37.61274 -122.38821 28 ft 3 kts 296°
2026-05-04 03:22 37.61266 -122.38801 24 ft 3 kts 289°
2026-05-04 03:22 37.61261 -122.38776 28 ft 3 kts 272°
2026-05-04 03:23 37.61263 -122.38751 27 ft 3 kts 255°
2026-05-04 03:23 37.61270 -122.38728 29 ft 3 kts 238°
2026-05-04 03:23 37.61282 -122.38708 30 ft 3 kts 220°
2026-05-04 03:23 37.61293 -122.38697 30 ft 0 kts 208°
2026-05-04 03:30 37.61289 -122.38700 30 ft 3 kts 207°
2026-05-04 03:30 37.61264 -122.38714 29 ft 4 kts 204°
2026-05-04 03:30 37.61235 -122.38729 28 ft 5 kts 201°
2026-05-04 03:30 37.61203 -122.38747 25 ft 5 kts 205°
2026-05-04 03:31 37.61135 -122.38791 27 ft 15 kts 207°
2026-05-04 03:31 37.61037 -122.38840 26 ft 15 kts 180°
2026-05-04 03:31 37.60969 -122.38755 26 ft 14 kts 118°
2026-05-04 03:31 37.60921 -122.38644 25 ft 14 kts 118°
2026-05-04 03:32 37.60884 -122.38530 24 ft 14 kts 101°
2026-05-04 03:32 37.60881 -122.38418 26 ft 12 kts 69°
2026-05-04 03:32 37.60940 -122.38354 30 ft 12 kts 27°
2026-05-04 03:32 37.61023 -122.38299 29 ft 14 kts 27°
2026-05-04 03:33 37.61114 -122.38239 26 ft 15 kts 28°
2026-05-04 03:33 37.61210 -122.38175 21 ft 17 kts 27°
2026-05-04 03:33 37.61281 -122.38128 20 ft 18 kts 28°
2026-05-04 03:33 37.61389 -122.38055 21 ft 17 kts 28°
2026-05-04 03:34 37.61532 -122.37959 20 ft 18 kts 26°
2026-05-04 03:34 37.61637 -122.37886 27 ft 16 kts 42°
2026-05-04 03:34 37.61662 -122.37805 24 ft 15 kts 92°
2026-05-04 03:34 37.61654 -122.37673 27 ft 15 kts 95°
2026-05-04 03:35 37.61644 -122.37537 24 ft 15 kts 95°
2026-05-04 03:35 37.61630 -122.37413 27 ft 13 kts 99°
2026-05-04 03:35 37.61618 -122.37304 29 ft 12 kts 98°
2026-05-04 03:35 37.61589 -122.37202 29 ft 13 kts 115°
2026-05-04 03:36 37.61550 -122.37095 28 ft 14 kts 115°
2026-05-04 03:36 37.61500 -122.36997 29 ft 13 kts 122°
2026-05-04 03:36 37.61448 -122.36898 27 ft 14 kts 128°
2026-05-04 03:36 37.61379 -122.36794 30 ft 16 kts 130°
2026-05-04 03:37 37.61320 -122.36675 30 ft 16 kts 117°
2026-05-04 03:37 37.61267 -122.36544 25 ft 18 kts 115°
2026-05-04 03:37 37.61213 -122.36407 27 ft 17 kts 117°
2026-05-04 03:37 37.61163 -122.36283 28 ft 16 kts 116°
2026-05-04 03:38 37.61115 -122.36168 32 ft 13 kts 119°
2026-05-04 03:38 37.61076 -122.36082 28 ft 10 kts 114°
2026-05-04 03:38 37.61059 -122.35998 28 ft 10 kts 92°
2026-05-04 03:38 37.61092 -122.35919 27 ft 11 kts 41°
2026-05-04 03:39 37.61107 -122.35904 27 ft 1 kts 36°
2026-05-04 03:39 37.61159 -122.35883 28 ft 15 kts 347°
2026-05-04 03:39 37.61210 -122.35941 27 ft 0 kts 300°
2026-05-04 03:39 37.61210 -122.35942 27 ft 1 kts 300°
2026-05-04 03:40 37.61239 -122.36005 30 ft 30 kts 300°
2026-05-04 03:40 37.61457 -122.36528 27 ft 102 kts 298°
2026-05-04 03:40 37.61898 -122.37562 59 ft 159 kts 295°
2026-05-04 03:40 37.62458 -122.38821 645 ft 170 kts 296°
2026-05-04 03:41 37.63071 -122.40233 1110 ft 195 kts 294°
2026-05-04 03:41 37.63671 -122.41861 1734 ft 212 kts 292°
2026-05-04 03:41 37.64326 -122.43569 2125 ft 223 kts 297°
2026-05-04 03:41 37.65140 -122.45319 2450 ft 238 kts 299°
2026-05-04 03:42 37.65996 -122.47143 2901 ft 246 kts 298°
2026-05-04 03:42 37.66855 -122.49016 3436 ft 251 kts 297°
2026-05-04 03:42 37.67500 -122.51075 3967 ft 254 kts 278°
2026-05-04 03:42 37.67703 -122.53308 4502 ft 260 kts 272°
2026-05-04 03:43 37.67828 -122.55628 4964 ft 269 kts 273°
2026-05-04 03:43 37.67961 -122.58030 5333 ft 283 kts 272°
2026-05-04 03:43 37.68109 -122.60577 5643 ft 299 kts 273°
2026-05-04 03:43 37.68268 -122.63258 6010 ft 311 kts 273°
2026-05-04 03:44 37.68434 -122.66014 6514 ft 318 kts 273°
2026-05-04 03:44 37.68603 -122.68829 7060 ft 323 kts 273°
2026-05-04 03:44 37.68773 -122.71673 7619 ft 327 kts 273°
2026-05-04 03:44 37.68944 -122.74527 8222 ft 331 kts 273°
2026-05-04 03:45 37.69118 -122.77437 8834 ft 334 kts 273°
2026-05-04 03:45 37.69293 -122.80391 9444 ft 338 kts 273°
2026-05-04 03:45 37.69469 -122.83366 10027 ft 342 kts 273°
2026-05-04 03:45 37.69646 -122.86372 10579 ft 345 kts 273°
2026-05-04 03:46 37.69825 -122.89422 11104 ft 349 kts 273°
2026-05-04 03:46 37.70004 -122.92490 11642 ft 352 kts 273°
2026-05-04 03:46 37.70184 -122.95599 12175 ft 356 kts 273°
2026-05-04 03:46 37.70363 -122.98687 12720 ft 359 kts 274°
2026-05-04 03:47 37.70545 -123.01850 13240 ft 363 kts 274°
2026-05-04 03:47 37.70728 -123.05044 13760 ft 366 kts 274°
2026-05-04 03:47 37.70912 -123.08276 14229 ft 369 kts 274°
2026-05-04 03:47 37.71096 -123.11520 14718 ft 372 kts 274°
2026-05-04 03:48 37.71281 -123.14787 15228 ft 374 kts 274°
2026-05-04 03:48 37.71465 -123.18075 15728 ft 376 kts 274°
2026-05-04 03:48 37.71649 -123.21360 16226 ft 378 kts 274°
2026-05-04 03:48 37.71834 -123.24692 16729 ft 381 kts 274°
2026-05-04 03:49 37.72019 -123.28044 17223 ft 383 kts 274°
2026-05-04 03:49 37.72205 -123.31414 17716 ft 386 kts 274°
2026-05-04 03:49 37.72392 -123.34838 17999 ft 396 kts 274°
2026-05-04 03:49 37.72585 -123.38385 18022 ft 411 kts 274°
2026-05-04 03:50 37.72781 -123.41988 18028 ft 425 kts 274°
2026-05-04 03:50 37.72982 -123.45731 18492 ft 425 kts 274°
2026-05-04 03:50 37.73180 -123.49429 19309 ft 416 kts 274°
2026-05-04 03:50 37.73372 -123.53046 20027 ft 411 kts 274°
2026-05-04 03:51 37.73563 -123.56653 20534 ft 412 kts 274°
2026-05-04 03:51 37.73753 -123.60276 20970 ft 414 kts 274°
2026-05-04 03:51 37.73943 -123.63922 21387 ft 417 kts 274°
2026-05-04 03:51 37.74134 -123.67593 21798 ft 420 kts 274°
2026-05-04 03:52 37.74325 -123.71293 22180 ft 423 kts 274°
2026-05-04 03:52 37.74514 -123.74965 22564 ft 426 kts 274°
2026-05-04 03:52 37.74694 -123.78505 22922 ft 429 kts 274°
2026-05-04 03:52 37.74885 -123.82278 23290 ft 432 kts 274°
2026-05-04 03:53 37.75077 -123.86090 23641 ft 435 kts 274°
2026-05-04 03:53 37.75269 -123.89924 23930 ft 439 kts 274°
2026-05-04 03:53 37.75461 -123.93790 24201 ft 443 kts 274°
2026-05-04 03:53 37.75654 -123.97690 24471 ft 446 kts 274°
2026-05-04 03:54 37.75848 -124.01632 24739 ft 450 kts 274°
2026-05-04 03:54 37.76040 -124.05587 25011 ft 453 kts 274°
2026-05-04 03:54 37.76234 -124.09581 25266 ft 457 kts 274°
2026-05-04 03:54 37.76425 -124.13555 25528 ft 460 kts 274°
2026-05-04 03:55 37.76618 -124.17612 25788 ft 463 kts 274°
2026-05-04 03:55 37.76811 -124.21689 26058 ft 467 kts 274°
2026-05-04 03:55 37.77004 -124.25787 26322 ft 470 kts 274°
2026-05-04 03:55 37.77197 -124.29930 26586 ft 473 kts 275°
2026-05-04 03:56 37.77390 -124.34107 26863 ft 476 kts 275°
2026-05-04 03:56 37.77583 -124.38294 27131 ft 479 kts 275°
2026-05-04 03:56 37.77775 -124.42517 27384 ft 482 kts 275°
2026-05-04 03:56 37.77967 -124.46762 27645 ft 485 kts 275°
2026-05-04 03:57 37.78159 -124.51038 27889 ft 488 kts 275°
2026-05-04 03:57 37.78351 -124.55354 28005 ft 495 kts 275°
2026-05-04 03:57 37.78546 -124.59739 28024 ft 504 kts 275°
2026-05-04 03:58 37.79136 -124.73320 28023 ft 531 kts 274°
2026-05-04 03:58 37.79334 -124.77998 28418 ft 529 kts 274°
2026-05-04 03:58 37.79527 -124.82603 29151 ft 522 kts 274°
2026-05-04 03:59 37.79716 -124.87150 29908 ft 513 kts 275°
2026-05-04 03:59 37.79901 -124.91634 30460 ft 507 kts 274°
2026-05-04 03:59 37.80081 -124.96035 31199 ft 494 kts 274°
2026-05-04 03:59 37.80255 -125.00308 32084 ft 478 kts 274°
2026-05-04 04:00 37.80423 -125.04458 32722 ft 469 kts 273°
2026-05-04 04:00 37.80587 -125.08564 32991 ft 468 kts 273°
2026-05-04 04:00 37.80914 -125.16870 33027 ft 477 kts 273°
2026-05-04 04:01 37.81243 -125.25339 33027 ft 487 kts 273°
2026-05-04 04:01 37.81569 -125.33926 33028 ft 497 kts 273°
2026-05-04 04:02 37.81898 -125.42748 33030 ft 507 kts 273°
2026-05-04 04:02 37.82225 -125.51736 33028 ft 516 kts 273°
2026-05-04 04:03 37.82553 -125.60886 33212 ft 520 kts 272°
2026-05-04 04:03 37.82711 -125.65382 34095 ft 503 kts 272°
2026-05-04 04:03 37.82862 -125.69729 34879 ft 488 kts 272°
2026-05-04 04:04 37.83009 -125.74005 35185 ft 485 kts 272°
2026-05-04 04:04 37.83147 -125.78284 35239 ft 487 kts 271°
2026-05-04 04:04 37.82382 -125.86739 35338 ft 489 kts 252°
2026-05-04 04:05 37.81381 -125.90842 35475 ft 488 kts 251°
2026-05-04 04:05 37.80287 -125.94905 35615 ft 487 kts 250°
2026-05-04 04:05 37.79152 -125.98949 35742 ft 487 kts 250°
2026-05-04 04:05 37.78004 -126.02987 35852 ft 487 kts 250°
2026-05-04 04:06 37.76863 -126.07010 35958 ft 487 kts 250°
2026-05-04 04:06 37.75724 -126.11050 36022 ft 488 kts 250°
2026-05-04 04:06 37.73450 -126.19188 36028 ft 493 kts 250°
2026-05-04 04:07 37.71176 -126.27353 36030 ft 498 kts 250°
2026-05-04 04:07 37.68858 -126.35661 36026 ft 503 kts 250°
2026-05-04 04:08 37.66514 -126.44031 36028 ft 508 kts 250°
2026-05-04 04:08 37.64153 -126.52429 36027 ft 512 kts 250°
2026-05-04 04:09 37.61759 -126.60919 36028 ft 515 kts 250°
2026-05-04 04:09 37.59344 -126.69455 36026 ft 517 kts 250°
2026-05-04 04:10 37.56916 -126.78008 36027 ft 518 kts 250°
2026-05-04 04:10 37.54481 -126.86561 36030 ft 518 kts 250°
2026-05-04 04:11 37.52055 -126.95064 36025 ft 519 kts 250°
2026-05-04 04:11 37.50586 -127.03934 36032 ft 518 kts 265°
2026-05-04 04:12 37.50173 -127.13012 36027 ft 519 kts 268°
2026-05-04 04:12 37.49927 -127.22108 36023 ft 519 kts 268°
2026-05-04 04:13 37.49678 -127.31204 36025 ft 519 kts 268°
2026-05-04 04:13 37.49396 -127.40303 36024 ft 520 kts 268°
2026-05-04 04:14 37.49097 -127.49347 36023 ft 520 kts 268°
2026-05-04 04:14 37.48787 -127.58439 36024 ft 520 kts 268°
2026-05-04 04:15 37.48471 -127.67527 36023 ft 520 kts 268°
2026-05-04 04:15 37.48149 -127.76621 36023 ft 520 kts 268°
2026-05-04 04:16 37.47820 -127.85715 36025 ft 519 kts 268°
2026-05-04 04:16 37.47487 -127.94745 36022 ft 519 kts 268°
2026-05-04 04:17 37.47144 -128.03828 36022 ft 519 kts 268°
2026-05-04 04:17 37.46795 -128.12918 36023 ft 519 kts 268°
2026-05-04 04:18 37.46438 -128.22007 36023 ft 520 kts 268°
2026-05-04 04:18 37.46074 -128.31104 36022 ft 520 kts 268°
2026-05-04 04:19 37.45702 -128.40207 36023 ft 520 kts 268°
2026-05-04 04:19 37.45326 -128.49258 36021 ft 520 kts 268°
2026-05-04 04:20 37.44941 -128.58365 36023 ft 520 kts 268°
2026-05-04 04:20 37.44549 -128.67453 35990 ft 521 kts 268°
2026-05-04 04:21 37.44218 -128.75021 36021 ft 521 kts 268°
2026-05-04 04:21 37.43812 -128.84142 36035 ft 522 kts 268°
2026-05-04 04:22 37.43399 -128.93270 36027 ft 523 kts 268°
2026-05-04 04:22 37.42908 -129.03899 36019 ft 523 kts 268°
2026-05-04 04:23 37.42551 -129.11509 36015 ft 524 kts 268°
2026-05-04 04:23 37.42115 -129.20678 36019 ft 524 kts 268°
2026-05-04 04:24 37.41671 -129.29850 36027 ft 525 kts 268°
2026-05-04 04:24 37.41223 -129.38970 36032 ft 525 kts 268°
2026-05-04 04:25 37.40765 -129.48148 36020 ft 525 kts 268°
2026-05-04 04:25 37.40299 -129.57326 36031 ft 526 kts 268°
2026-05-04 04:26 37.39826 -129.66503 36026 ft 526 kts 268°
2026-05-04 04:26 37.39346 -129.75692 36020 ft 526 kts 268°
2026-05-04 04:27 37.38859 -129.84869 36026 ft 526 kts 268°
2026-05-04 04:27 37.38367 -129.94008 36025 ft 527 kts 268°
2026-05-04 04:28 37.37865 -130.03211 36032 ft 527 kts 268°
2026-05-04 04:28 37.37355 -130.12412 36029 ft 527 kts 268°
2026-05-04 04:29 37.36841 -130.21564 36033 ft 528 kts 268°
2026-05-04 04:29 37.36317 -130.30770 36033 ft 528 kts 268°
2026-05-04 04:30 37.35784 -130.39991 36033 ft 528 kts 268°
2026-05-04 04:30 37.35245 -130.49213 36034 ft 528 kts 268°
2026-05-04 04:31 37.34700 -130.58391 36040 ft 529 kts 268°
2026-05-04 04:31 37.34146 -130.67613 36039 ft 529 kts 268°
2026-05-04 04:32 37.33585 -130.76829 36044 ft 529 kts 268°
2026-05-04 04:32 37.33016 -130.86061 36047 ft 529 kts 268°
2026-05-04 04:33 37.32444 -130.95222 36045 ft 529 kts 268°
2026-05-04 04:33 37.31861 -131.04441 36046 ft 529 kts 268°
2026-05-04 04:34 37.31272 -131.13654 36054 ft 529 kts 268°
2026-05-04 04:34 37.30674 -131.22877 36053 ft 529 kts 268°
2026-05-04 04:35 37.30074 -131.32025 36056 ft 529 kts 268°
2026-05-04 04:35 37.29463 -131.41236 36053 ft 529 kts 268°
2026-05-04 04:36 37.28844 -131.50459 36061 ft 528 kts 268°
2026-05-04 04:36 37.28219 -131.59648 36060 ft 528 kts 268°
2026-05-04 04:37 37.26952 -131.77986 36061 ft 528 kts 268°
2026-05-04 04:38 37.26306 -131.87175 36064 ft 527 kts 268°
2026-05-04 04:38 37.25655 -131.96342 36063 ft 527 kts 268°
2026-05-04 04:39 37.24996 -132.05509 36071 ft 527 kts 268°
2026-05-04 04:39 37.24334 -132.14619 36077 ft 527 kts 268°
2026-05-04 04:40 37.23662 -132.23785 36079 ft 527 kts 268°
2026-05-04 04:40 37.22982 -132.32945 36076 ft 527 kts 268°
2026-05-04 04:41 37.22296 -132.42100 36077 ft 526 kts 268°
2026-05-04 04:41 37.21602 -132.51251 36080 ft 526 kts 268°
2026-05-04 04:42 37.20902 -132.60395 36083 ft 526 kts 268°
2026-05-04 04:42 37.20202 -132.69455 36091 ft 525 kts 268°
2026-05-04 04:43 37.19489 -132.78578 36091 ft 525 kts 268°
2026-05-04 04:43 37.18770 -132.87691 36093 ft 524 kts 268°
2026-05-04 04:44 37.18044 -132.96810 36096 ft 524 kts 268°
2026-05-04 04:44 37.17317 -133.05844 36100 ft 523 kts 268°
2026-05-04 04:45 37.16580 -133.14922 36100 ft 523 kts 268°
2026-05-04 04:47 37.13952 -133.46577 36101 ft 519 kts 268°
2026-05-04 04:47 37.13189 -133.55583 36119 ft 518 kts 268°
2026-05-04 04:48 37.12422 -133.64554 36118 ft 518 kts 268°
2026-05-04 04:49 37.10481 -133.86905 36122 ft 515 kts 269°
2026-05-04 04:49 37.09694 -133.95824 36124 ft 515 kts 269°
2026-05-04 04:50 37.08907 -134.04675 36127 ft 514 kts 269°
2026-05-04 04:50 37.08108 -134.13579 36131 ft 514 kts 269°
2026-05-04 04:51 37.07303 -134.22473 36147 ft 513 kts 270°
2026-05-04 04:51 37.06498 -134.31295 36143 ft 513 kts 270°
2026-05-04 04:52 37.05681 -134.40175 36133 ft 513 kts 270°
2026-05-04 04:52 37.04859 -134.49044 36129 ft 512 kts 270°
2026-05-04 04:53 37.04029 -134.57909 36120 ft 512 kts 270°
2026-05-04 04:53 37.03195 -134.66759 36113 ft 512 kts 270°
2026-05-04 04:54 37.02359 -134.75549 36105 ft 511 kts 271°
2026-05-04 04:54 37.01512 -134.84397 36097 ft 511 kts 271°
2026-05-04 04:55 37.00659 -134.93233 36085 ft 511 kts 271°
2026-05-04 04:55 36.99128 -135.01957 36071 ft 527 kts 256°
2026-05-04 04:56 36.96237 -135.10432 36063 ft 531 kts 253°
2026-05-04 04:56 36.93091 -135.18824 36058 ft 532 kts 252°
2026-05-04 04:57 36.89928 -135.27182 36052 ft 532 kts 253°
2026-05-04 04:57 36.86781 -135.35559 36040 ft 531 kts 253°
2026-05-04 04:58 36.83669 -135.43873 36031 ft 531 kts 253°
2026-05-04 04:58 36.80534 -135.52237 36019 ft 531 kts 253°
2026-05-04 04:59 36.77397 -135.60579 36007 ft 531 kts 253°
2026-05-04 04:59 36.74255 -135.68910 35998 ft 530 kts 253°
2026-05-04 05:00 36.71109 -135.77228 35990 ft 530 kts 253°
2026-05-04 05:01 36.66399 -135.89614 35709 ft 517 kts 253°
2026-05-04 05:01 36.64872 -135.93568 35446 ft 509 kts 253°
2026-05-04 05:01 36.63347 -135.97498 35310 ft 497 kts 253°
2026-05-04 05:01 36.61871 -136.01350 34956 ft 492 kts 255°
2026-05-04 05:02 36.60407 -136.05243 34792 ft 499 kts 254°
2026-05-04 05:02 36.57552 -136.13017 34836 ft 486 kts 256°
2026-05-04 05:02 36.56146 -136.16823 34957 ft 477 kts 255°
2026-05-04 05:03 36.54763 -136.20500 35007 ft 471 kts 255°
2026-05-04 05:04 36.49115 -136.35009 35295 ft 465 kts 253°
2026-05-04 05:04 36.47675 -136.38622 35431 ft 465 kts 253°
2026-05-04 05:04 36.46253 -136.42225 35569 ft 464 kts 253°
2026-05-04 05:06 36.36497 -136.67290 36078 ft 462 kts 253°
2026-05-04 05:06 36.35114 -136.70874 36126 ft 459 kts 253°
2026-05-04 05:07 36.32333 -136.78050 36200 ft 463 kts 252°
2026-05-04 05:07 36.29493 -136.85277 36206 ft 468 kts 252°
2026-05-04 05:09 36.18393 -137.13464 36217 ft 486 kts 251°
2026-05-04 05:09 36.16903 -137.17225 36206 ft 488 kts 251°
2026-05-04 05:10 36.13896 -137.24811 36205 ft 492 kts 251°
2026-05-04 05:10 36.10880 -137.32402 36213 ft 491 kts 251°
2026-05-04 05:11 36.07853 -137.40002 36213 ft 491 kts 251°
2026-05-04 05:11 36.04833 -137.47571 36214 ft 491 kts 251°
2026-05-04 05:12 36.01804 -137.55143 36216 ft 491 kts 250°
2026-05-04 05:12 35.98794 -137.62650 36217 ft 490 kts 250°
2026-05-04 05:13 35.95762 -137.70196 36221 ft 490 kts 250°
2026-05-04 05:13 35.92724 -137.77736 36218 ft 490 kts 250°
2026-05-04 05:14 35.89688 -137.85255 36220 ft 489 kts 250°
2026-05-04 05:14 35.86652 -137.92759 36227 ft 489 kts 250°
2026-05-04 05:15 35.83632 -138.00202 36229 ft 488 kts 250°
2026-05-04 05:15 35.80590 -138.07685 36227 ft 487 kts 250°
2026-05-04 05:16 35.77545 -138.15159 36229 ft 487 kts 249°
2026-05-04 05:16 35.74522 -138.22562 36233 ft 486 kts 249°
2026-05-04 05:17 35.71474 -138.30007 36232 ft 486 kts 249°
2026-05-04 05:17 35.68426 -138.37437 36231 ft 485 kts 249°
2026-05-04 05:18 35.65380 -138.44845 36234 ft 485 kts 249°
2026-05-04 05:18 35.62328 -138.52252 36236 ft 485 kts 249°
2026-05-04 05:19 35.59291 -138.59605 36238 ft 485 kts 249°
2026-05-04 05:19 35.56236 -138.66986 36239 ft 484 kts 249°
2026-05-04 05:20 35.53170 -138.74377 36239 ft 484 kts 249°
2026-05-04 05:20 35.50101 -138.81756 36238 ft 484 kts 249°
2026-05-04 05:21 35.47052 -138.89072 36243 ft 484 kts 248°
2026-05-04 05:21 35.43986 -138.96413 36245 ft 484 kts 248°
2026-05-04 05:22 35.40912 -139.03758 36247 ft 483 kts 248°
2026-05-04 05:22 35.37834 -139.11094 36247 ft 483 kts 248°
2026-05-04 05:23 35.34757 -139.18415 36250 ft 483 kts 248°
2026-05-04 05:23 35.31696 -139.25678 36249 ft 483 kts 248°
2026-05-04 05:24 35.28610 -139.32988 36253 ft 482 kts 248°
2026-05-04 05:24 35.25523 -139.40282 36253 ft 481 kts 248°
2026-05-04 05:25 35.23999 -139.43868 36247 ft 467 kts 248°
2026-05-04 05:25 35.22534 -139.47301 36249 ft 453 kts 248°
2026-05-04 05:25 35.21095 -139.50672 36246 ft 439 kts 248°
2026-05-04 05:25 35.19707 -139.53925 36246 ft 424 kts 248°
2026-05-04 05:26 35.18368 -139.57061 36248 ft 408 kts 248°
2026-05-04 05:26 35.17079 -139.60079 36243 ft 392 kts 248°
2026-05-04 05:26 35.15842 -139.62975 36239 ft 375 kts 248°
2026-05-04 05:26 35.14663 -139.65732 36203 ft 362 kts 249°
2026-05-04 05:27 35.13498 -139.68485 36031 ft 365 kts 249°
2026-05-04 05:28 35.05743 -139.87676 35753 ft 356 kts 250°
2026-05-04 05:29 35.04699 -139.90390 35627 ft 358 kts 251°
2026-05-04 05:29 35.03653 -139.93154 35521 ft 360 kts 251°
2026-05-04 05:29 35.01596 -139.98691 35535 ft 355 kts 251°
2026-05-04 05:31 34.94865 -140.18114 34820 ft 362 kts 261°
2026-05-04 05:31 34.94642 -140.21289 33253 ft 394 kts 283°
2026-05-04 05:32 34.95422 -140.24564 32377 ft 405 kts 295°
2026-05-04 05:32 34.96442 -140.27741 32059 ft 400 kts 292°
2026-05-04 05:33 34.97785 -140.37979 32117 ft 420 kts 273°
2026-05-04 05:33 34.97467 -140.45132 32315 ft 429 kts 269°
2026-05-04 05:34 34.96913 -140.52451 32518 ft 437 kts 268°
2026-05-04 05:34 34.96641 -140.56155 32624 ft 441 kts 268°
2026-05-04 05:34 34.96380 -140.59894 32733 ft 444 kts 269°
2026-05-04 05:34 34.96129 -140.63667 32834 ft 448 kts 269°
2026-05-04 05:35 34.95884 -140.67468 32941 ft 451 kts 269°
2026-05-04 05:35 34.95640 -140.71299 33052 ft 455 kts 269°
2026-05-04 05:35 34.95393 -140.75172 33158 ft 459 kts 269°
2026-05-04 05:35 34.95144 -140.79060 33267 ft 463 kts 269°
2026-05-04 05:36 34.94891 -140.82989 33365 ft 466 kts 269°
2026-05-04 05:36 34.94376 -140.90870 33582 ft 472 kts 268°
2026-05-04 05:36 34.94112 -140.94868 33798 ft 473 kts 268°
2026-05-04 05:37 34.93847 -140.98859 34063 ft 472 kts 268°
2026-05-04 05:37 34.93579 -141.02864 34324 ft 471 kts 268°
2026-05-04 05:37 34.93312 -141.06842 34550 ft 471 kts 268°
2026-05-04 05:38 34.92779 -141.14742 35005 ft 469 kts 268°
2026-05-04 05:38 34.92510 -141.18693 35211 ft 468 kts 268°
2026-05-04 05:38 34.92240 -141.22647 35421 ft 467 kts 268°
2026-05-04 05:38 34.91971 -141.26584 35615 ft 466 kts 267°
2026-05-04 05:39 34.91699 -141.30524 35805 ft 465 kts 267°
2026-05-04 05:39 34.91156 -141.38364 36176 ft 463 kts 267°
2026-05-04 05:40 34.90331 -141.50146 36290 ft 471 kts 266°
2026-05-04 05:40 34.89764 -141.58143 36286 ft 475 kts 266°
2026-05-04 05:41 34.89198 -141.66008 36285 ft 464 kts 266°
2026-05-04 05:41 34.88633 -141.73808 36286 ft 462 kts 266°
2026-05-04 05:42 34.88066 -141.81596 36289 ft 462 kts 266°
2026-05-04 05:42 34.87492 -141.89399 36289 ft 461 kts 266°
2026-05-04 05:43 34.86916 -141.97153 36289 ft 461 kts 266°
2026-05-04 05:45 34.84559 -142.28222 36291 ft 460 kts 265°
2026-05-04 05:47 34.82126 -142.59228 36293 ft 460 kts 265°
2026-05-04 05:47 34.81510 -142.66920 36293 ft 459 kts 265°
2026-05-04 05:48 34.80884 -142.74678 36293 ft 459 kts 265°
2026-05-04 05:48 34.80255 -142.82412 36290 ft 459 kts 265°
2026-05-04 05:49 34.79621 -142.90136 36288 ft 459 kts 265°
2026-05-04 05:49 34.78987 -142.97816 36289 ft 458 kts 265°
2026-05-04 05:51 34.76392 -143.28610 36290 ft 457 kts 265°
2026-05-04 05:52 34.75731 -143.36309 36290 ft 457 kts 265°
2026-05-04 05:52 34.75066 -143.44000 36290 ft 457 kts 265°
2026-05-04 05:54 34.72367 -143.74641 36288 ft 455 kts 264°
2026-05-04 05:55 34.71682 -143.82280 36290 ft 454 kts 264°
2026-05-04 05:55 34.70991 -143.89926 36290 ft 454 kts 264°
2026-05-04 05:56 34.70302 -143.97507 36290 ft 453 kts 264°
2026-05-04 05:56 34.69605 -144.05112 36288 ft 452 kts 264°
2026-05-04 05:57 34.68903 -144.12725 36290 ft 452 kts 264°
2026-05-04 05:57 34.68317 -144.19036 36290 ft 451 kts 264°
2026-05-04 05:58 34.67494 -144.27844 36287 ft 451 kts 264°
2026-05-04 05:58 34.66781 -144.35415 36287 ft 450 kts 263°
2026-05-04 05:59 34.66187 -144.41694 36287 ft 450 kts 263°
2026-05-04 05:59 34.65467 -144.49244 36287 ft 450 kts 263°
2026-05-04 06:00 34.64742 -144.56797 36283 ft 449 kts 263°
2026-05-04 06:00 34.64014 -144.64342 36282 ft 449 kts 263°
2026-05-04 06:01 34.63286 -144.71830 36282 ft 449 kts 263°
2026-05-04 06:03 34.60317 -145.01887 36279 ft 448 kts 263°
2026-05-04 06:05 34.56899 -145.35572 36277 ft 446 kts 262°
2026-05-04 06:06 34.56129 -145.43043 36276 ft 446 kts 262°
2026-05-04 06:06 34.55357 -145.50473 36273 ft 446 kts 262°
2026-05-04 06:07 34.54578 -145.57935 36272 ft 445 kts 262°
2026-05-04 06:07 34.53794 -145.65393 36275 ft 445 kts 262°
2026-05-04 06:08 34.53007 -145.72845 36272 ft 445 kts 262°
2026-05-04 06:08 34.52220 -145.80242 36272 ft 444 kts 262°
2026-05-04 06:09 34.51426 -145.87669 36272 ft 444 kts 262°
2026-05-04 06:11 34.48211 -146.17296 36265 ft 443 kts 261°
2026-05-04 06:13 34.44937 -146.46794 36262 ft 441 kts 261°
2026-05-04 06:14 34.42016 -146.72567 36256 ft 440 kts 261°
2026-05-04 06:15 34.41178 -146.79874 36255 ft 440 kts 261°
2026-05-04 06:15 34.40330 -146.87225 36253 ft 440 kts 261°
2026-05-04 06:16 34.39485 -146.94510 36253 ft 439 kts 261°
2026-05-04 06:16 34.38629 -147.01849 36253 ft 439 kts 261°
2026-05-04 06:17 34.37771 -147.09171 36254 ft 439 kts 261°
2026-05-04 06:17 34.36908 -147.16497 36249 ft 439 kts 260°
2026-05-04 06:18 34.36047 -147.23768 36250 ft 438 kts 260°
2026-05-04 06:20 34.32546 -147.52944 36245 ft 438 kts 260°
2026-05-04 06:21 34.30323 -147.71165 36246 ft 437 kts 260°
2026-05-04 06:22 34.29426 -147.78452 36240 ft 437 kts 260°
2026-05-04 06:25 34.23057 -148.29190 36233 ft 436 kts 259°
2026-05-04 06:26 34.22129 -148.36439 36243 ft 436 kts 259°
2026-05-04 06:26 34.21196 -148.43688 36229 ft 436 kts 259°
2026-05-04 06:27 34.18858 -148.61717 36234 ft 434 kts 259°
2026-05-04 06:28 34.17916 -148.68925 36233 ft 434 kts 259°
2026-05-04 06:28 34.16971 -148.76115 36236 ft 433 kts 259°
2026-05-04 06:29 34.16030 -148.83245 36236 ft 432 kts 258°
2026-05-04 06:29 34.15079 -148.90416 36237 ft 432 kts 258°
2026-05-04 06:30 34.14125 -148.97577 36232 ft 431 kts 258°
2026-05-04 06:30 34.13169 -149.04723 36237 ft 430 kts 258°
2026-05-04 06:31 34.12216 -149.11809 36240 ft 430 kts 258°
2026-05-04 06:31 34.11255 -149.18928 36239 ft 429 kts 258°
2026-05-04 06:33 34.07381 -149.47298 36240 ft 428 kts 258°
2026-05-04 06:34 34.06404 -149.54370 36239 ft 427 kts 258°
2026-05-04 06:34 34.05424 -149.61442 36239 ft 427 kts 258°
2026-05-04 06:36 34.01467 -149.89665 36239 ft 426 kts 258°
2026-05-04 06:37 34.00469 -149.96710 36241 ft 426 kts 257°
2026-05-04 06:37 33.99782 -150.03827 36240 ft 427 kts 262°
2026-05-04 06:38 33.99334 -150.10934 36245 ft 428 kts 262°
2026-05-04 06:40 33.97618 -150.39480 36248 ft 427 kts 262°
2026-05-04 06:40 33.97172 -150.46634 36248 ft 427 kts 262°
2026-05-04 06:41 33.96723 -150.53770 36246 ft 427 kts 262°
2026-05-04 06:41 33.96270 -150.60905 36249 ft 427 kts 262°
2026-05-04 06:42 33.95815 -150.67997 36249 ft 427 kts 262°
2026-05-04 06:44 33.93949 -150.96476 36255 ft 427 kts 262°
2026-05-04 06:44 33.93472 -151.03603 36255 ft 427 kts 262°
2026-05-04 06:45 33.92990 -151.10738 36257 ft 427 kts 262°
2026-05-04 06:45 33.92587 -151.16659 36257 ft 427 kts 262°
2026-05-04 06:46 33.92097 -151.23794 36262 ft 427 kts 262°
2026-05-04 06:46 33.91603 -151.30925 36262 ft 427 kts 262°
2026-05-04 06:48 33.89588 -151.59438 36264 ft 428 kts 262°
2026-05-04 06:50 33.87506 -151.87962 36265 ft 428 kts 262°
2026-05-04 06:51 33.86974 -151.95101 36270 ft 428 kts 262°
2026-05-04 06:51 33.86439 -152.02232 36272 ft 428 kts 262°
2026-05-04 06:52 33.85900 -152.09361 36271 ft 428 kts 262°
2026-05-04 06:52 33.85357 -152.16481 36267 ft 428 kts 262°
2026-05-04 06:53 33.84812 -152.23571 36273 ft 428 kts 262°
2026-05-04 06:53 33.84260 -152.30714 36272 ft 428 kts 262°
2026-05-04 06:54 33.83707 -152.37795 36276 ft 427 kts 262°
2026-05-04 06:54 33.83148 -152.44916 36278 ft 427 kts 262°
2026-05-04 06:55 33.82584 -152.52040 36280 ft 427 kts 261°
2026-05-04 06:55 33.82017 -152.59157 36275 ft 427 kts 261°
2026-05-04 06:57 33.79713 -152.87529 36280 ft 426 kts 261°
2026-05-04 06:58 33.79127 -152.94619 36280 ft 425 kts 261°
2026-05-04 06:58 33.78537 -153.01703 36283 ft 425 kts 261°
2026-05-04 06:59 33.77948 -153.08732 36287 ft 425 kts 261°
2026-05-04 06:59 33.77352 -153.15798 36287 ft 425 kts 261°
2026-05-04 07:01 33.74933 -153.43971 36291 ft 423 kts 260°
2026-05-04 07:02 33.74317 -153.51017 36294 ft 423 kts 260°
2026-05-04 07:02 33.73701 -153.58027 36289 ft 423 kts 260°
2026-05-04 07:03 33.73078 -153.65073 36293 ft 423 kts 260°
2026-05-04 07:03 33.72452 -153.72107 36294 ft 423 kts 260°
2026-05-04 07:04 33.71824 -153.79109 36297 ft 423 kts 260°
2026-05-04 07:04 33.71190 -153.86141 36292 ft 423 kts 260°
2026-05-04 07:05 33.70556 -153.93124 36295 ft 423 kts 260°
2026-05-04 07:05 33.69914 -154.00155 36295 ft 422 kts 260°
2026-05-04 07:06 33.68946 -154.10674 36302 ft 422 kts 260°
2026-05-04 07:07 33.68295 -154.17685 36299 ft 421 kts 260°
2026-05-04 07:09 33.65664 -154.45606 36300 ft 421 kts 260°
2026-05-04 07:09 33.65000 -154.52551 36302 ft 420 kts 260°
2026-05-04 07:10 33.64328 -154.59526 36301 ft 420 kts 260°
2026-05-04 07:12 33.61609 -154.87347 36302 ft 420 kts 260°
2026-05-04 07:12 33.60918 -154.94312 36304 ft 420 kts 260°
2026-05-04 07:13 33.60226 -155.01263 36306 ft 420 kts 260°
2026-05-04 07:13 33.59530 -155.08193 36307 ft 420 kts 261°
2026-05-04 07:14 33.57769 -155.25585 36303 ft 420 kts 261°
2026-05-04 07:15 33.57057 -155.32542 36303 ft 420 kts 261°
2026-05-04 07:15 33.56346 -155.39449 36305 ft 420 kts 261°
2026-05-04 07:16 33.55628 -155.46394 36302 ft 420 kts 261°
2026-05-04 07:16 33.54903 -155.53356 36305 ft 420 kts 261°
2026-05-04 07:17 33.54180 -155.60271 36309 ft 420 kts 262°
2026-05-04 07:17 33.53451 -155.67204 36311 ft 419 kts 262°
2026-05-04 07:18 33.52716 -155.74150 36305 ft 419 kts 262°
2026-05-04 07:18 33.51979 -155.81084 36305 ft 419 kts 262°
2026-05-04 07:19 33.51238 -155.88017 36308 ft 419 kts 262°
2026-05-04 07:19 33.50493 -155.94947 36311 ft 419 kts 262°
2026-05-04 07:20 33.49749 -156.01836 36311 ft 419 kts 262°
2026-05-04 07:20 33.48995 -156.08777 36313 ft 419 kts 262°
2026-05-04 07:22 33.45953 -156.36406 36310 ft 419 kts 263°
2026-05-04 07:23 33.45183 -156.43320 36314 ft 419 kts 263°
2026-05-04 07:23 33.44411 -156.50203 36309 ft 418 kts 263°
2026-05-04 07:24 33.43633 -156.57112 36313 ft 418 kts 264°
2026-05-04 07:24 33.42851 -156.64019 36317 ft 418 kts 264°
2026-05-04 07:26 33.39696 -156.91528 36315 ft 417 kts 264°
2026-05-04 07:27 33.38897 -156.98413 36316 ft 417 kts 264°
2026-05-04 07:27 33.38095 -157.05292 36314 ft 417 kts 264°
2026-05-04 07:28 33.37290 -157.12156 36314 ft 416 kts 265°
2026-05-04 07:28 33.36482 -157.19018 36321 ft 416 kts 265°
2026-05-04 07:29 33.35675 -157.25834 36316 ft 416 kts 265°
2026-05-04 07:29 33.34860 -157.32686 36319 ft 416 kts 265°
2026-05-04 07:30 33.34041 -157.39542 36319 ft 416 kts 265°
2026-05-04 07:30 33.33218 -157.46394 36319 ft 416 kts 265°
2026-05-04 07:31 33.32397 -157.53197 36326 ft 415 kts 265°
2026-05-04 07:33 33.29061 -157.80516 36326 ft 415 kts 266°
2026-05-04 07:33 33.28360 -157.86191 36320 ft 415 kts 266°
2026-05-04 07:34 33.27514 -157.93020 36321 ft 415 kts 266°
2026-05-04 07:34 33.26662 -157.99863 36325 ft 416 kts 266°
2026-05-04 07:35 33.25806 -158.06710 36328 ft 416 kts 266°
2026-05-04 07:35 33.24951 -158.13514 36320 ft 416 kts 266°
2026-05-04 07:36 33.24087 -158.20352 36324 ft 416 kts 266°
2026-05-04 07:38 33.20591 -158.47736 36327 ft 418 kts 265°
2026-05-04 07:38 33.19704 -158.54608 36329 ft 419 kts 265°
2026-05-04 07:39 33.18811 -158.61489 36330 ft 419 kts 265°
2026-05-04 07:39 33.17914 -158.68379 36328 ft 420 kts 265°
2026-05-04 07:40 33.17012 -158.75269 36329 ft 420 kts 265°
2026-05-04 07:40 33.16111 -158.82126 36332 ft 420 kts 265°
2026-05-04 07:41 33.15199 -158.89037 36329 ft 421 kts 265°
2026-05-04 07:41 33.14283 -158.95942 36335 ft 421 kts 265°
2026-05-04 07:42 33.13363 -159.02855 36334 ft 422 kts 265°
2026-05-04 07:42 33.12444 -159.09724 36332 ft 422 kts 265°
2026-05-04 07:43 33.11515 -159.16636 36325 ft 422 kts 265°
2026-05-04 07:43 33.10580 -159.23567 36336 ft 423 kts 265°
2026-05-04 07:44 33.09642 -159.30488 36333 ft 423 kts 265°
2026-05-04 07:44 33.08705 -159.37378 36338 ft 423 kts 264°
2026-05-04 07:45 33.07758 -159.44311 36337 ft 424 kts 264°
2026-05-04 07:45 33.06805 -159.51251 36333 ft 424 kts 264°
2026-05-04 07:46 33.05849 -159.58192 36335 ft 424 kts 264°
2026-05-04 07:46 33.04888 -159.65131 36334 ft 425 kts 264°
2026-05-04 07:47 33.03922 -159.72083 36335 ft 425 kts 264°
2026-05-04 07:49 33.00185 -159.99907 36342 ft 424 kts 270°
2026-05-04 07:49 33.00250 -160.06906 36342 ft 422 kts 274°
2026-05-04 07:50 33.00516 -160.13898 36340 ft 422 kts 275°
2026-05-04 07:50 33.00808 -160.20891 36341 ft 423 kts 275°
2026-05-04 07:51 33.01085 -160.27855 36342 ft 423 kts 275°
2026-05-04 07:51 33.01350 -160.34866 36340 ft 423 kts 274°
2026-05-04 07:52 33.01608 -160.41896 36342 ft 424 kts 274°
2026-05-04 07:52 33.01861 -160.48886 36343 ft 424 kts 274°
2026-05-04 07:54 33.02842 -160.76969 36343 ft 425 kts 274°
2026-05-04 07:55 33.03078 -160.84012 36344 ft 425 kts 274°
2026-05-04 07:55 33.03311 -160.91059 36344 ft 425 kts 274°
2026-05-04 07:56 33.03539 -160.98118 36344 ft 425 kts 274°
2026-05-04 07:56 33.03762 -161.05129 36345 ft 426 kts 274°
2026-05-04 07:57 33.03983 -161.12182 36348 ft 426 kts 274°
2026-05-04 07:57 33.04199 -161.19238 36345 ft 426 kts 274°
2026-05-04 07:58 33.04412 -161.26302 36346 ft 426 kts 274°
2026-05-04 07:58 33.04620 -161.33329 36346 ft 426 kts 274°
2026-05-04 07:59 33.04825 -161.40396 36347 ft 426 kts 274°
2026-05-04 07:59 33.05026 -161.47476 36347 ft 426 kts 274°
2026-05-04 08:00 33.05222 -161.54502 36348 ft 427 kts 274°
2026-05-04 08:02 33.05970 -161.82757 36356 ft 427 kts 274°
2026-05-04 08:02 33.06149 -161.89880 36354 ft 427 kts 274°
2026-05-04 08:03 33.06321 -161.96910 36353 ft 427 kts 274°
2026-05-04 08:03 33.06490 -162.03990 36356 ft 427 kts 274°
2026-05-04 08:04 33.06656 -162.11069 36358 ft 427 kts 274°
2026-05-04 08:04 33.06816 -162.18110 36359 ft 427 kts 274°
2026-05-04 08:05 33.06973 -162.25188 36356 ft 427 kts 274°
2026-05-04 08:05 33.07127 -162.32267 36357 ft 427 kts 274°
2026-05-04 08:06 33.07276 -162.39348 36359 ft 427 kts 274°
2026-05-04 08:06 33.07422 -162.46437 36358 ft 427 kts 274°
2026-05-04 08:08 33.07963 -162.74731 36357 ft 427 kts 274°
2026-05-04 08:11 33.08495 -163.06585 36361 ft 427 kts 274°
2026-05-04 08:11 33.08654 -163.17169 36360 ft 427 kts 274°
2026-05-04 08:12 33.08755 -163.24262 36360 ft 427 kts 274°
2026-05-04 08:12 33.08852 -163.31303 36360 ft 427 kts 274°
2026-05-04 08:13 33.08946 -163.38388 36363 ft 427 kts 274°
2026-05-04 08:13 33.09035 -163.45485 36363 ft 427 kts 273°
2026-05-04 08:14 33.09121 -163.52580 36361 ft 427 kts 273°
2026-05-04 08:16 33.09422 -163.80923 36364 ft 427 kts 273°
2026-05-04 08:16 33.09488 -163.88014 36364 ft 427 kts 273°
2026-05-04 08:17 33.09549 -163.95070 36372 ft 427 kts 273°
2026-05-04 08:17 33.09606 -164.02171 36371 ft 427 kts 273°
2026-05-04 08:19 33.09795 -164.30502 36379 ft 428 kts 273°
2026-05-04 08:20 33.09833 -164.37569 36377 ft 428 kts 273°
2026-05-04 08:20 33.09866 -164.44667 36376 ft 428 kts 273°
2026-05-04 08:21 33.09891 -164.50573 36369 ft 428 kts 273°
2026-05-04 08:21 33.09917 -164.57666 36364 ft 428 kts 273°
2026-05-04 08:22 33.09939 -164.64769 36379 ft 428 kts 273°
2026-05-04 08:24 33.09986 -164.93133 36380 ft 428 kts 273°
2026-05-04 08:24 33.09988 -165.00236 36384 ft 428 kts 273°
2026-05-04 08:25 33.09986 -165.07344 36379 ft 428 kts 273°
2026-05-04 08:25 33.09980 -165.14392 36378 ft 428 kts 273°
2026-05-04 08:27 33.09915 -165.42805 36382 ft 428 kts 272°
2026-05-04 08:28 33.09889 -165.49904 36385 ft 428 kts 272°
2026-05-04 08:28 33.09859 -165.56953 36386 ft 428 kts 272°
2026-05-04 08:29 33.09824 -165.64059 36384 ft 428 kts 272°
2026-05-04 08:31 33.09647 -165.92431 36385 ft 428 kts 272°
2026-05-04 08:33 33.09405 -166.20839 36386 ft 429 kts 272°
2026-05-04 08:35 33.09098 -166.49345 36386 ft 430 kts 272°
2026-05-04 08:35 33.09011 -166.56438 36388 ft 430 kts 272°
2026-05-04 08:37 33.08674 -166.81411 36385 ft 431 kts 272°
2026-05-04 08:38 33.08569 -166.88515 36388 ft 431 kts 272°
2026-05-04 08:38 33.08460 -166.95665 36386 ft 431 kts 271°
2026-05-04 08:40 33.07980 -167.24269 36386 ft 432 kts 271°
2026-05-04 08:41 33.07849 -167.31445 36388 ft 432 kts 271°
2026-05-04 08:41 33.07715 -167.38611 36390 ft 432 kts 271°
2026-05-04 08:42 33.07576 -167.45769 36390 ft 432 kts 271°
2026-05-04 08:42 33.07434 -167.52902 36388 ft 433 kts 271°
2026-05-04 08:43 33.07287 -167.60086 36388 ft 433 kts 271°
2026-05-04 08:43 33.07136 -167.67262 36389 ft 433 kts 271°
2026-05-04 08:44 33.06981 -167.74440 36393 ft 433 kts 271°
2026-05-04 08:46 33.06319 -168.03110 36391 ft 433 kts 271°
2026-05-04 08:46 33.06144 -168.10286 36390 ft 433 kts 271°
2026-05-04 08:47 33.05964 -168.17466 36389 ft 433 kts 270°
2026-05-04 08:47 33.05780 -168.24612 36386 ft 433 kts 270°
2026-05-04 08:48 33.05592 -168.31801 36388 ft 433 kts 270°
2026-05-04 08:48 33.05400 -168.38974 36389 ft 433 kts 270°
2026-05-04 08:49 33.05203 -168.46152 36388 ft 433 kts 270°
2026-05-04 08:50 33.04485 -168.71231 36388 ft 432 kts 270°
2026-05-04 08:51 33.04272 -168.78354 36396 ft 432 kts 270°
2026-05-04 08:51 33.04053 -168.85518 36393 ft 432 kts 270°
2026-05-04 08:52 33.03830 -168.92684 36392 ft 432 kts 270°
2026-05-04 08:52 33.03605 -168.99805 36392 ft 432 kts 270°
2026-05-04 08:54 33.02657 -169.28448 36389 ft 432 kts 269°
2026-05-04 08:55 33.02412 -169.35556 36390 ft 432 kts 269°
2026-05-04 08:55 33.02161 -169.42711 36389 ft 432 kts 269°
2026-05-04 09:01 33.00686 -170.17677 36393 ft 430 kts 274°
2026-05-04 09:01 33.00968 -170.24810 36385 ft 429 kts 274°
2026-05-04 09:02 33.01239 -170.31926 36389 ft 429 kts 274°
2026-05-04 09:02 33.01503 -170.39029 36383 ft 429 kts 274°
2026-05-04 09:03 33.01762 -170.46134 36388 ft 429 kts 274°
2026-05-04 09:03 33.02016 -170.53193 36388 ft 429 kts 274°
2026-05-04 09:04 33.02267 -170.60287 36385 ft 429 kts 274°
2026-05-04 09:04 33.02515 -170.67398 36387 ft 429 kts 274°
2026-05-04 09:05 33.02758 -170.74500 36383 ft 428 kts 274°
2026-05-04 09:05 33.02997 -170.81563 36383 ft 428 kts 274°
2026-05-04 09:06 33.03232 -170.88656 36382 ft 428 kts 274°
2026-05-04 09:08 33.04131 -171.17006 36392 ft 428 kts 274°
2026-05-04 09:08 33.04345 -171.24054 36393 ft 428 kts 274°
2026-05-04 09:09 33.04556 -171.31147 36389 ft 428 kts 273°
2026-05-04 09:09 33.04728 -171.37040 36388 ft 428 kts 273°
2026-05-04 09:10 33.04932 -171.44144 36388 ft 428 kts 273°
2026-05-04 09:10 33.05132 -171.51237 36386 ft 428 kts 273°
2026-05-04 09:11 33.05328 -171.58341 36388 ft 428 kts 273°
2026-05-04 09:11 33.05518 -171.65396 36388 ft 428 kts 273°
2026-05-04 09:12 33.05706 -171.72499 36388 ft 428 kts 273°
2026-05-04 09:14 33.06416 -172.00873 36384 ft 428 kts 273°
2026-05-04 09:14 33.06584 -172.07967 36388 ft 428 kts 273°
2026-05-04 09:15 33.06748 -172.15079 36386 ft 428 kts 273°
2026-05-04 09:15 33.06906 -172.22131 36383 ft 428 kts 273°
2026-05-04 09:17 33.07574 -172.54086 36381 ft 428 kts 273°
2026-05-04 09:18 33.07712 -172.61188 36383 ft 428 kts 273°
2026-05-04 09:18 33.07844 -172.68243 36381 ft 428 kts 273°
2026-05-04 09:19 33.07974 -172.75355 36381 ft 428 kts 273°
2026-05-04 09:19 33.08099 -172.82449 36384 ft 428 kts 273°
2026-05-04 09:20 33.08220 -172.89500 36379 ft 428 kts 273°
2026-05-04 09:20 33.08337 -172.96591 36377 ft 428 kts 273°
2026-05-04 09:21 33.08450 -173.03699 36381 ft 428 kts 273°
2026-05-04 09:21 33.08560 -173.10786 36379 ft 428 kts 273°
2026-05-04 09:22 33.08665 -173.17891 36381 ft 428 kts 273°
2026-05-04 09:22 33.08766 -173.24989 36379 ft 428 kts 273°
2026-05-04 09:23 33.08863 -173.32051 36379 ft 428 kts 273°
2026-05-04 09:23 33.08956 -173.39157 36378 ft 428 kts 273°
2026-05-04 09:25 33.09288 -173.67541 36376 ft 428 kts 273°
2026-05-04 09:26 33.09362 -173.74655 36377 ft 428 kts 273°
2026-05-04 09:26 33.09431 -173.81764 36374 ft 428 kts 273°
2026-05-04 09:27 33.09496 -173.88871 36375 ft 428 kts 273°
2026-05-04 09:27 33.09557 -173.95980 36377 ft 428 kts 273°
2026-05-04 09:28 33.09613 -174.03043 36380 ft 428 kts 273°
2026-05-04 09:28 33.09666 -174.10156 36374 ft 429 kts 273°
2026-05-04 09:29 33.09716 -174.17280 36375 ft 429 kts 273°
2026-05-04 09:29 33.09760 -174.24352 36372 ft 429 kts 273°
2026-05-04 09:30 33.09801 -174.31477 36373 ft 429 kts 273°
2026-05-04 09:30 33.09838 -174.38604 36369 ft 429 kts 273°
2026-05-04 09:31 33.09871 -174.45674 36369 ft 429 kts 273°
2026-05-04 09:31 33.09900 -174.52796 36369 ft 429 kts 273°
2026-05-04 09:32 33.09924 -174.59928 36369 ft 429 kts 273°
2026-05-04 09:34 33.09983 -174.88417 36365 ft 430 kts 273°
2026-05-04 09:34 33.09988 -174.95558 36364 ft 430 kts 273°
2026-05-04 09:35 33.09988 -175.02645 36365 ft 430 kts 273°
2026-05-04 09:35 33.09985 -175.09791 36365 ft 430 kts 273°
2026-05-04 09:37 33.09930 -175.38360 36364 ft 431 kts 273°
2026-05-04 09:38 33.09906 -175.45511 36365 ft 431 kts 273°
2026-05-04 09:38 33.09878 -175.52671 36367 ft 432 kts 273°
2026-05-04 09:39 33.09846 -175.59833 36360 ft 432 kts 273°
2026-05-04 09:39 33.09809 -175.66995 36361 ft 432 kts 273°
2026-05-04 09:40 33.09769 -175.74168 36361 ft 432 kts 273°
2026-05-04 09:40 33.09725 -175.81296 36362 ft 432 kts 273°
2026-05-04 09:42 33.09506 -176.09959 36351 ft 432 kts 273°
2026-05-04 09:43 33.09441 -176.17132 36354 ft 433 kts 274°
2026-05-04 09:43 33.09372 -176.24319 36357 ft 433 kts 274°
2026-05-04 09:44 33.09300 -176.31447 36342 ft 433 kts 273°
2026-05-04 09:46 33.08965 -176.60133 36355 ft 433 kts 273°
2026-05-04 09:46 33.08872 -176.67308 36350 ft 433 kts 273°
2026-05-04 09:47 33.08774 -176.74476 36350 ft 433 kts 273°
2026-05-04 09:49 33.08341 -177.03160 36346 ft 433 kts 273°
2026-05-04 09:51 33.07908 -177.28300 36349 ft 434 kts 273°
2026-05-04 09:51 33.07775 -177.35508 36346 ft 434 kts 273°
2026-05-04 09:52 33.07637 -177.42717 36347 ft 435 kts 273°
2026-05-04 09:52 33.07495 -177.49942 36341 ft 435 kts 273°
2026-05-04 09:53 33.07349 -177.57161 36344 ft 435 kts 273°
2026-05-04 09:53 33.07200 -177.64296 36343 ft 436 kts 273°
2026-05-04 09:54 33.07046 -177.71535 36342 ft 436 kts 272°
2026-05-04 09:54 33.06887 -177.78772 36344 ft 436 kts 272°
2026-05-04 09:55 33.06724 -177.85976 36345 ft 437 kts 272°
2026-05-04 09:55 33.06556 -177.93223 36341 ft 437 kts 272°
2026-05-04 09:56 33.06384 -178.00472 36340 ft 437 kts 272°
2026-05-04 09:56 33.06208 -178.07722 36347 ft 437 kts 272°
2026-05-04 09:57 33.06029 -178.14935 36339 ft 437 kts 272°
2026-05-04 09:57 33.05844 -178.22189 36339 ft 437 kts 272°
2026-05-04 09:58 33.05655 -178.29442 36336 ft 437 kts 272°
2026-05-04 09:58 33.05495 -178.35470 36335 ft 437 kts 272°
2026-05-04 10:00 33.04684 -178.64442 36337 ft 438 kts 272°
2026-05-04 10:04 33.03101 -179.15280 36333 ft 439 kts 272°
2026-05-04 10:04 33.02857 -179.22563 36338 ft 440 kts 272°
2026-05-04 10:05 33.02609 -179.29848 36338 ft 440 kts 272°
2026-05-04 10:05 33.02357 -179.37138 36337 ft 440 kts 272°
2026-05-04 10:06 33.02101 -179.44387 36337 ft 441 kts 272°
2026-05-04 10:06 33.01840 -179.51686 36338 ft 441 kts 272°
2026-05-04 10:08 33.00894 -179.77188 36332 ft 442 kts 271°
2026-05-04 10:08 33.00609 -179.84587 36331 ft 443 kts 271°
2026-05-04 10:09 33.00325 -179.91877 36334 ft 443 kts 271°
2026-05-04 10:09 33.00065 -179.99259 36330 ft 442 kts 274°
2026-05-04 10:10 33.00249 179.93516 36335 ft 441 kts 276°
2026-05-04 10:10 33.00530 179.86184 36330 ft 441 kts 276°
2026-05-04 10:11 33.00823 179.78883 36333 ft 441 kts 276°
2026-05-04 10:11 33.01107 179.71573 36328 ft 441 kts 276°
2026-05-04 10:12 33.01379 179.64321 36331 ft 441 kts 276°
2026-05-04 10:12 33.01648 179.57023 36330 ft 440 kts 276°
2026-05-04 10:13 33.01912 179.49727 36330 ft 441 kts 276°
2026-05-04 10:13 33.02171 179.42455 36329 ft 441 kts 276°
2026-05-04 10:14 33.02427 179.35150 36329 ft 441 kts 276°
2026-05-04 10:16 33.03409 179.05922 36327 ft 442 kts 276°
2026-05-04 10:16 33.03645 178.98583 36327 ft 443 kts 276°
2026-05-04 10:17 33.03877 178.91249 36330 ft 443 kts 276°
2026-05-04 10:19 33.04760 178.61873 36327 ft 444 kts 275°
2026-05-04 10:19 33.04971 178.54505 36325 ft 444 kts 275°
2026-05-04 10:20 33.05178 178.47134 36324 ft 445 kts 275°
2026-05-04 10:20 33.05380 178.39760 36324 ft 445 kts 275°
2026-05-04 10:21 33.05578 178.32378 36326 ft 445 kts 275°
2026-05-04 10:21 33.05771 178.25046 36325 ft 445 kts 275°
2026-05-04 10:22 33.06054 178.13963 36324 ft 446 kts 275°
2026-05-04 10:23 33.06237 178.06567 36320 ft 446 kts 275°
2026-05-04 10:25 33.06926 177.77005 36321 ft 446 kts 275°
2026-05-04 10:25 33.07087 177.69636 36319 ft 447 kts 275°
2026-05-04 10:26 33.07244 177.62225 36320 ft 447 kts 275°
2026-05-04 10:26 33.07397 177.54806 36320 ft 447 kts 275°
2026-05-04 10:27 33.07545 177.47443 36319 ft 447 kts 275°
2026-05-04 10:27 33.07689 177.40032 36318 ft 447 kts 275°
2026-05-04 10:28 33.07829 177.32612 36319 ft 447 kts 274°
2026-05-04 10:28 33.07965 177.25196 36317 ft 447 kts 274°
2026-05-04 10:29 33.08095 177.17816 36315 ft 447 kts 274°
2026-05-04 10:29 33.08222 177.10391 36314 ft 447 kts 274°
2026-05-04 10:30 33.08345 177.02948 36313 ft 447 kts 274°
2026-05-04 10:30 33.08463 176.95576 36312 ft 447 kts 274°
2026-05-04 10:31 33.08576 176.88145 36313 ft 448 kts 274°
2026-05-04 10:32 33.08940 176.62179 36311 ft 448 kts 274°
2026-05-04 10:33 33.09034 176.54721 36313 ft 448 kts 274°
2026-05-04 10:33 33.09123 176.47337 36314 ft 448 kts 274°
2026-05-04 10:34 33.09208 176.39887 36312 ft 448 kts 274°
2026-05-04 10:34 33.09289 176.32452 36312 ft 448 kts 274°
2026-05-04 10:35 33.09365 176.25059 36310 ft 448 kts 274°
2026-05-04 10:35 33.09436 176.17619 36229 ft 448 kts 275°
2026-05-04 10:36 33.09503 176.10124 36309 ft 457 kts 275°
2026-05-04 10:36 33.09575 176.02457 36310 ft 465 kts 275°
2026-05-04 10:37 33.09635 175.94732 36308 ft 465 kts 275°
2026-05-04 10:37 33.09688 175.87068 36308 ft 465 kts 275°
2026-05-04 10:39 33.09846 175.60091 36311 ft 465 kts 275°
2026-05-04 10:40 33.09881 175.52370 36304 ft 466 kts 274°
2026-05-04 10:40 33.09911 175.44635 36305 ft 466 kts 274°
2026-05-04 10:41 33.09936 175.36897 36297 ft 466 kts 274°
2026-05-04 10:41 33.09956 175.29204 36311 ft 466 kts 274°
2026-05-04 10:42 33.09972 175.21466 36316 ft 466 kts 274°
2026-05-04 10:42 33.09983 175.13721 36306 ft 466 kts 274°
2026-05-04 10:43 33.09989 175.05976 36314 ft 466 kts 274°
2026-05-04 10:45 33.09966 174.75101 36303 ft 467 kts 274°
2026-05-04 10:45 33.09951 174.68653 36305 ft 467 kts 274°
2026-05-04 10:46 33.09929 174.60903 36308 ft 467 kts 274°
2026-05-04 10:46 33.09903 174.53138 36304 ft 467 kts 274°
2026-05-04 10:47 33.09871 174.45382 36304 ft 467 kts 274°
2026-05-04 10:47 33.09835 174.37631 36306 ft 467 kts 274°
2026-05-04 10:49 33.09642 174.06684 36304 ft 468 kts 274°
2026-05-04 10:50 33.09582 173.98922 36305 ft 468 kts 274°
2026-05-04 10:52 33.09293 173.67888 36308 ft 468 kts 273°
2026-05-04 10:52 33.09209 173.60113 36308 ft 468 kts 273°
2026-05-04 10:54 33.08823 173.29034 36315 ft 469 kts 273°
2026-05-04 10:56 33.08360 172.97996 36315 ft 469 kts 273°
2026-05-04 10:57 33.08232 172.90201 36316 ft 469 kts 273°
2026-05-04 10:57 33.08099 172.82414 36319 ft 469 kts 273°
2026-05-04 10:58 33.07961 172.74622 36320 ft 469 kts 273°
2026-05-04 10:58 33.07819 172.66832 36322 ft 470 kts 273°
2026-05-04 10:59 33.07672 172.59093 36322 ft 470 kts 273°
2026-05-04 10:59 33.07520 172.51293 36320 ft 470 kts 272°
2026-05-04 11:00 33.07362 172.43489 36321 ft 470 kts 272°
2026-05-04 11:02 33.06685 172.12339 36339 ft 470 kts 272°
2026-05-04 11:05 33.05206 171.53906 36326 ft 471 kts 272°
2026-05-04 11:06 33.04988 171.46093 36323 ft 471 kts 272°
2026-05-04 11:06 33.04764 171.38278 36335 ft 471 kts 272°
2026-05-04 11:10 33.03066 170.83647 36330 ft 472 kts 271°
2026-05-04 11:12 33.01987 170.52364 36331 ft 473 kts 271°
2026-05-04 11:12 33.01704 170.44525 36333 ft 473 kts 271°
2026-05-04 11:13 33.01415 170.36680 36331 ft 473 kts 271°
2026-05-04 11:13 33.01124 170.28882 36333 ft 473 kts 271°
2026-05-04 11:14 33.00826 170.21030 36332 ft 473 kts 271°
2026-05-04 11:16 33.00388 169.89758 36332 ft 471 kts 276°
2026-05-04 11:16 33.00699 169.81953 36333 ft 472 kts 276°
2026-05-04 11:17 33.01008 169.74153 36332 ft 472 kts 276°
2026-05-04 11:19 33.02156 169.42900 36331 ft 472 kts 275°
2026-05-04 11:19 33.02430 169.35079 36334 ft 472 kts 275°
2026-05-04 11:20 33.02700 169.27248 36333 ft 473 kts 275°
2026-05-04 11:20 33.02963 169.19465 36339 ft 473 kts 275°
2026-05-04 11:22 33.03974 168.88126 36334 ft 473 kts 275°
2026-05-04 11:23 33.04215 168.80277 36334 ft 473 kts 275°
2026-05-04 11:25 33.05018 168.52858 36332 ft 474 kts 275°
2026-05-04 11:25 33.05237 168.45005 36333 ft 474 kts 275°
2026-05-04 11:27 33.06161 168.09653 36331 ft 474 kts 274°
2026-05-04 11:28 33.06352 168.01829 36332 ft 474 kts 274°
2026-05-04 11:28 33.06540 167.93954 36333 ft 474 kts 274°
2026-05-04 11:29 33.06722 167.86085 36334 ft 474 kts 274°
2026-05-04 11:29 33.06898 167.78274 36333 ft 474 kts 274°
2026-05-04 11:33 33.07977 167.24489 36329 ft 475 kts 273°
2026-05-04 11:33 33.08116 167.16594 36328 ft 476 kts 273°
2026-05-04 11:34 33.08250 167.08707 36331 ft 476 kts 273°
2026-05-04 11:34 33.08380 167.00807 36331 ft 476 kts 273°
2026-05-04 11:35 33.08503 166.92958 36329 ft 476 kts 273°
2026-05-04 11:35 33.08622 166.85056 36332 ft 476 kts 273°
2026-05-04 11:36 33.08737 166.77143 36325 ft 476 kts 273°
2026-05-04 11:36 33.08846 166.69233 36327 ft 477 kts 273°
2026-05-04 11:37 33.08950 166.61379 36328 ft 477 kts 273°
2026-05-04 11:37 33.09049 166.53461 36327 ft 477 kts 273°
2026-05-04 11:38 33.09144 166.45545 36323 ft 477 kts 272°
2026-05-04 11:38 33.09233 166.37623 36324 ft 477 kts 272°
2026-05-04 11:39 33.09318 166.29694 36322 ft 478 kts 272°
2026-05-04 11:41 33.09574 166.02002 36320 ft 478 kts 272°
2026-05-04 11:41 33.09636 165.94076 36317 ft 478 kts 272°
2026-05-04 11:42 33.09693 165.86132 36318 ft 478 kts 272°
2026-05-04 11:42 33.09745 165.78200 36318 ft 478 kts 272°
2026-05-04 11:43 33.09792 165.70316 36315 ft 478 kts 272°
2026-05-04 11:43 33.09834 165.62386 36316 ft 478 kts 272°
2026-05-04 11:44 33.09871 165.54452 36317 ft 478 kts 272°
2026-05-04 11:44 33.09903 165.46506 36314 ft 478 kts 272°
2026-05-04 11:45 33.09930 165.38615 36313 ft 478 kts 272°
2026-05-04 11:45 33.09952 165.30690 36312 ft 478 kts 272°
2026-05-04 11:46 33.09969 165.22758 36312 ft 478 kts 271°
2026-05-04 11:46 33.09981 165.14804 36311 ft 479 kts 271°
2026-05-04 11:47 33.09988 165.06854 36309 ft 479 kts 271°
2026-05-04 11:47 33.09989 164.98960 36306 ft 479 kts 271°
2026-05-04 11:48 33.09986 164.91011 36307 ft 479 kts 271°
2026-05-04 11:48 33.09978 164.83036 36302 ft 479 kts 271°
2026-05-04 11:49 33.09965 164.75084 36302 ft 479 kts 271°
2026-05-04 11:49 33.09946 164.67134 36305 ft 479 kts 271°
2026-05-04 11:50 33.09923 164.59230 36304 ft 479 kts 271°
2026-05-04 11:50 33.09895 164.51254 36305 ft 479 kts 271°
2026-05-04 11:51 33.09861 164.43348 36303 ft 479 kts 271°
2026-05-04 11:51 33.09823 164.35382 36305 ft 479 kts 271°
2026-05-04 11:52 33.09779 164.27425 36300 ft 479 kts 271°
2026-05-04 11:52 33.09730 164.19479 36301 ft 479 kts 271°
2026-05-04 11:53 33.09677 164.11523 36302 ft 479 kts 271°
2026-05-04 11:53 33.09618 164.03562 36298 ft 479 kts 270°
2026-05-04 11:55 33.09333 163.71782 36288 ft 480 kts 270°
2026-05-04 11:56 33.09249 163.63826 36290 ft 480 kts 270°
2026-05-04 11:56 33.09160 163.55866 36292 ft 480 kts 270°
2026-05-04 11:57 33.09065 163.47903 36294 ft 480 kts 270°
2026-05-04 11:57 33.08967 163.40001 36295 ft 480 kts 270°
2026-05-04 11:58 33.08863 163.32032 36292 ft 480 kts 270°
2026-05-04 11:58 33.08754 163.24110 36288 ft 479 kts 270°
2026-05-04 11:59 33.08639 163.16151 36290 ft 479 kts 270°
2026-05-04 11:59 33.08520 163.08189 36291 ft 479 kts 270°
2026-05-04 12:00 33.08396 163.00238 36289 ft 479 kts 270°
2026-05-04 12:00 33.08266 162.92284 36286 ft 479 kts 270°
2026-05-04 12:01 33.08133 162.84386 36287 ft 479 kts 270°
2026-05-04 12:02 33.07622 162.56539 36288 ft 479 kts 269°
2026-05-04 12:03 33.07465 162.48589 36287 ft 479 kts 269°
2026-05-04 12:03 33.07303 162.40629 36285 ft 479 kts 269°
2026-05-04 12:04 33.07135 162.32690 36285 ft 479 kts 269°
2026-05-04 12:04 33.06964 162.24798 36282 ft 479 kts 269°
2026-05-04 12:05 33.06787 162.16854 36283 ft 479 kts 269°
2026-05-04 12:05 33.06606 162.08910 36280 ft 479 kts 269°
2026-05-04 12:06 33.06419 162.00972 36280 ft 479 kts 269°
2026-05-04 12:06 33.06227 161.93041 36279 ft 478 kts 269°
2026-05-04 12:07 33.06031 161.85155 36278 ft 478 kts 269°
2026-05-04 12:07 33.05829 161.77220 36280 ft 478 kts 269°
2026-05-04 12:08 33.05622 161.69289 36278 ft 478 kts 269°
2026-05-04 12:08 33.05410 161.61360 36280 ft 478 kts 269°
2026-05-04 12:09 33.05194 161.53494 36277 ft 478 kts 269°
2026-05-04 12:09 33.04973 161.45575 36276 ft 478 kts 269°
2026-05-04 12:10 33.04746 161.37660 36276 ft 477 kts 268°
2026-05-04 12:10 33.04515 161.29741 36272 ft 477 kts 268°
2026-05-04 12:11 33.04277 161.21819 36274 ft 477 kts 268°
2026-05-04 12:11 33.04037 161.13946 36270 ft 477 kts 268°
2026-05-04 12:12 33.03791 161.06045 36273 ft 477 kts 268°
2026-05-04 12:12 33.03540 160.98143 36275 ft 477 kts 268°
2026-05-04 12:14 33.02487 160.66620 36270 ft 476 kts 268°
2026-05-04 12:15 33.02212 160.58732 36268 ft 476 kts 268°
2026-05-04 12:15 33.01934 160.50894 36268 ft 476 kts 268°
2026-05-04 12:16 33.01648 160.43017 36268 ft 476 kts 268°
2026-05-04 12:16 33.01407 160.36449 36269 ft 476 kts 268°
2026-05-04 12:17 33.01113 160.28577 36265 ft 476 kts 268°
2026-05-04 12:17 33.00812 160.20683 36262 ft 476 kts 268°
2026-05-04 12:18 33.00510 160.12848 36263 ft 476 kts 268°
2026-05-04 12:18 33.00200 160.04945 36261 ft 476 kts 267°
2026-05-04 12:19 32.99227 159.97167 36265 ft 476 kts 256°
2026-05-04 12:19 32.97439 159.89626 36262 ft 476 kts 253°
2026-05-04 12:20 32.95504 159.82067 36260 ft 476 kts 253°
2026-05-04 12:20 32.93560 159.74525 36260 ft 476 kts 253°
2026-05-04 12:21 32.91627 159.66973 36260 ft 476 kts 253°
2026-05-04 12:21 32.89711 159.59469 36260 ft 476 kts 253°
2026-05-04 12:22 32.87779 159.51919 36259 ft 476 kts 253°
2026-05-04 12:22 32.85844 159.44381 36257 ft 476 kts 253°
2026-05-04 12:23 32.83899 159.36828 36259 ft 476 kts 253°
2026-05-04 12:23 32.81966 159.29341 36257 ft 476 kts 253°
2026-05-04 12:24 32.80018 159.21820 36259 ft 476 kts 253°
2026-05-04 12:24 32.78063 159.14289 36255 ft 476 kts 253°
2026-05-04 12:25 32.76105 159.06771 36256 ft 476 kts 253°
2026-05-04 12:25 32.74157 158.99311 36257 ft 475 kts 252°
2026-05-04 12:26 32.72193 158.91807 36255 ft 475 kts 252°
2026-05-04 12:26 32.70221 158.84293 36254 ft 475 kts 252°
2026-05-04 12:27 32.68248 158.76797 36254 ft 476 kts 252°
2026-05-04 12:27 32.66268 158.69294 36253 ft 476 kts 252°
2026-05-04 12:28 32.64296 158.61843 36249 ft 476 kts 252°
2026-05-04 12:28 32.62307 158.54346 36249 ft 476 kts 252°
2026-05-04 12:29 32.60315 158.46856 36249 ft 476 kts 252°
2026-05-04 12:29 32.58314 158.39359 36248 ft 476 kts 252°
2026-05-04 12:30 32.56324 158.31919 36249 ft 476 kts 252°
2026-05-04 12:30 32.54313 158.24422 36249 ft 476 kts 252°
2026-05-04 12:31 32.52301 158.16938 36251 ft 476 kts 252°
2026-05-04 12:31 32.50282 158.09449 36249 ft 477 kts 252°
2026-05-04 12:32 32.47254 157.98253 36247 ft 477 kts 252°
2026-05-04 12:33 32.45225 157.90776 36247 ft 476 kts 252°
2026-05-04 12:33 32.43191 157.83297 36244 ft 476 kts 252°
2026-05-04 12:34 32.41155 157.75836 36243 ft 477 kts 252°
2026-05-04 12:34 32.39114 157.68375 36246 ft 477 kts 252°
2026-05-04 12:35 32.37066 157.60905 36246 ft 477 kts 252°
2026-05-04 12:35 32.35027 157.53490 36244 ft 477 kts 252°
2026-05-04 12:36 32.32967 157.46021 36244 ft 477 kts 252°
2026-05-04 12:36 32.30908 157.38569 36245 ft 477 kts 252°
2026-05-04 12:37 32.28856 157.31162 36241 ft 477 kts 252°
2026-05-04 12:37 32.26788 157.23715 36241 ft 477 kts 252°
2026-05-04 12:38 32.24714 157.16270 36242 ft 476 kts 252°
2026-05-04 12:38 32.22637 157.08830 36238 ft 476 kts 252°
2026-05-04 12:39 32.20556 157.01392 36239 ft 476 kts 252°
2026-05-04 12:39 32.18473 156.93971 36239 ft 476 kts 252°
2026-05-04 12:40 32.16383 156.86547 36237 ft 476 kts 252°
2026-05-04 12:40 32.14303 156.79175 36235 ft 476 kts 252°
2026-05-04 12:41 32.12208 156.71768 36237 ft 475 kts 252°
2026-05-04 12:41 32.10109 156.64365 36234 ft 475 kts 252°
2026-05-04 12:42 32.08009 156.56974 36236 ft 475 kts 252°
2026-05-04 12:42 32.05905 156.49586 36237 ft 475 kts 252°
2026-05-04 12:43 32.03791 156.42185 36233 ft 475 kts 252°
2026-05-04 12:43 32.01691 156.34851 36233 ft 475 kts 252°
2026-05-04 12:44 31.99570 156.27461 36234 ft 475 kts 252°
2026-05-04 12:44 31.97455 156.20115 36230 ft 475 kts 251°
2026-05-04 12:45 31.95331 156.12752 36231 ft 475 kts 251°
2026-05-04 12:45 31.93202 156.05391 36232 ft 475 kts 251°
2026-05-04 12:46 31.91070 155.98033 36229 ft 474 kts 251°
2026-05-04 12:46 31.88932 155.90677 36231 ft 474 kts 251°
2026-05-04 12:47 31.86806 155.83379 36224 ft 474 kts 251°
2026-05-04 12:47 31.84663 155.76042 36225 ft 474 kts 251°
2026-05-04 12:48 31.82517 155.68709 36225 ft 474 kts 251°
2026-05-04 12:48 31.80368 155.61387 36224 ft 474 kts 251°
2026-05-04 12:49 31.78214 155.54062 36226 ft 474 kts 251°
2026-05-04 12:49 31.76054 155.46738 36222 ft 474 kts 251°
2026-05-04 12:50 31.73892 155.39421 36221 ft 474 kts 251°
2026-05-04 12:50 31.71740 155.32160 36221 ft 473 kts 251°
2026-05-04 12:51 31.69574 155.24865 36222 ft 473 kts 251°
2026-05-04 12:51 31.67400 155.17564 36221 ft 473 kts 251°
2026-05-04 12:52 31.65220 155.10258 36222 ft 473 kts 251°
2026-05-04 12:52 31.63038 155.02962 36219 ft 473 kts 251°
2026-05-04 12:53 31.60852 154.95670 36220 ft 473 kts 251°
2026-05-04 12:53 31.58676 154.88431 36215 ft 473 kts 251°
2026-05-04 12:54 31.56481 154.81143 36217 ft 473 kts 251°
2026-05-04 12:54 31.54282 154.73859 36219 ft 473 kts 251°
2026-05-04 12:55 31.52080 154.66583 36216 ft 473 kts 251°
2026-05-04 12:55 31.49879 154.59329 36216 ft 473 kts 251°
2026-05-04 12:56 31.47668 154.52058 36217 ft 473 kts 251°
2026-05-04 12:56 31.45470 154.44843 36211 ft 473 kts 251°
2026-05-04 12:57 31.43248 154.37571 36212 ft 473 kts 251°
2026-05-04 12:57 31.41026 154.30315 36214 ft 473 kts 251°
2026-05-04 12:58 31.38801 154.23063 36215 ft 473 kts 251°
2026-05-04 12:58 31.36572 154.15815 36214 ft 473 kts 251°
2026-05-04 12:59 31.34349 154.08606 36210 ft 473 kts 251°
2026-05-04 12:59 31.32111 154.01365 36210 ft 473 kts 251°
2026-05-04 13:00 31.29868 153.94123 36210 ft 473 kts 251°
2026-05-04 13:00 31.27621 153.86884 36208 ft 473 kts 251°
2026-05-04 13:01 31.25388 153.79704 36209 ft 473 kts 250°
2026-05-04 13:01 31.23134 153.72478 36206 ft 473 kts 250°
2026-05-04 13:02 31.20876 153.65253 36215 ft 473 kts 250°
2026-05-04 13:02 31.18998 153.59258 36208 ft 473 kts 250°
2026-05-04 13:03 31.16733 153.52041 36204 ft 473 kts 250°
2026-05-04 13:03 31.14093 153.43648 36204 ft 473 kts 250°
2026-05-04 13:04 31.12199 153.37643 36204 ft 473 kts 250°
2026-05-04 13:04 31.09922 153.30436 36202 ft 473 kts 250°
2026-05-04 13:05 31.07640 153.23230 36204 ft 473 kts 250°
2026-05-04 13:05 31.05354 153.16027 36200 ft 473 kts 250°
2026-05-04 13:06 31.03061 153.08817 36197 ft 473 kts 250°
2026-05-04 13:06 31.00778 153.01657 36199 ft 473 kts 250°
2026-05-04 13:07 30.98480 152.94466 36193 ft 473 kts 250°
2026-05-04 13:07 30.96174 152.87265 36200 ft 473 kts 250°
2026-05-04 13:08 30.93880 152.80115 36195 ft 473 kts 250°
2026-05-04 13:08 30.91566 152.72919 36194 ft 473 kts 250°
2026-05-04 13:09 30.89251 152.65737 36193 ft 473 kts 250°
2026-05-04 13:09 30.86932 152.58560 36192 ft 473 kts 250°
2026-05-04 13:10 30.84624 152.51430 36192 ft 473 kts 250°
2026-05-04 13:10 30.82295 152.44251 36195 ft 473 kts 250°
2026-05-04 13:11 30.79963 152.37082 36193 ft 473 kts 250°
2026-05-04 13:11 30.77632 152.29928 36189 ft 473 kts 250°
2026-05-04 13:12 30.75294 152.22768 36185 ft 473 kts 250°
2026-05-04 13:12 30.72964 152.15649 36186 ft 473 kts 250°
2026-05-04 13:13 30.70620 152.08505 36186 ft 473 kts 249°
2026-05-04 13:13 30.68267 152.01345 36185 ft 473 kts 249°
2026-05-04 13:14 30.65913 151.94198 36183 ft 473 kts 249°
2026-05-04 13:14 30.63571 151.87103 36184 ft 473 kts 249°
2026-05-04 13:15 30.61207 151.79960 36184 ft 473 kts 249°
2026-05-04 13:15 30.58845 151.72835 36181 ft 473 kts 249°
2026-05-04 13:16 30.56477 151.65708 36181 ft 473 kts 249°
2026-05-04 13:16 30.54104 151.58578 36183 ft 473 kts 249°
2026-05-04 13:17 30.51745 151.51509 36181 ft 473 kts 249°
2026-05-04 13:17 30.49365 151.44389 36181 ft 473 kts 249°
2026-05-04 13:18 30.46976 151.37260 36178 ft 473 kts 249°
2026-05-04 13:18 30.44603 151.30193 36178 ft 473 kts 249°
2026-05-04 13:19 30.42211 151.23082 36180 ft 473 kts 249°
2026-05-04 13:19 30.39818 151.15987 36178 ft 473 kts 249°
2026-05-04 13:20 30.37418 151.08884 36178 ft 473 kts 249°
2026-05-04 13:20 30.35036 151.01846 36179 ft 473 kts 249°
2026-05-04 13:21 30.32628 150.94751 36176 ft 473 kts 249°
2026-05-04 13:21 30.30219 150.87665 36175 ft 473 kts 249°
2026-05-04 13:22 30.27806 150.80582 36176 ft 473 kts 249°
2026-05-04 13:22 30.25406 150.73553 36174 ft 472 kts 249°
2026-05-04 13:23 30.22987 150.66482 36171 ft 472 kts 249°
2026-05-04 13:23 30.20562 150.59408 36188 ft 472 kts 248°
2026-05-04 13:24 30.18136 150.52344 36171 ft 472 kts 248°
2026-05-04 13:24 30.15719 150.45323 36171 ft 472 kts 248°
2026-05-04 13:25 30.12070 150.34750 36184 ft 472 kts 248°
2026-05-04 13:25 30.09631 150.27699 36165 ft 472 kts 248°
2026-05-04 13:26 30.07205 150.20702 36164 ft 472 kts 248°
2026-05-04 13:26 30.04762 150.13669 36174 ft 472 kts 248°
2026-05-04 13:27 30.02315 150.06640 36162 ft 472 kts 248°
2026-05-04 13:27 29.99951 149.99566 36180 ft 472 kts 252°
2026-05-04 13:28 29.98024 149.92339 36163 ft 472 kts 253°
2026-05-04 13:28 29.96165 149.85073 36179 ft 472 kts 253°
2026-05-04 13:29 29.94312 149.77807 36172 ft 471 kts 253°
2026-05-04 13:29 29.92464 149.70604 36159 ft 471 kts 253°
2026-05-04 13:30 29.90596 149.63359 36160 ft 471 kts 253°
2026-05-04 13:30 29.88720 149.56107 36168 ft 471 kts 253°
2026-05-04 13:31 29.86844 149.48873 36175 ft 471 kts 253°
2026-05-04 13:31 29.84964 149.41640 36161 ft 471 kts 253°
2026-05-04 13:32 29.83093 149.34458 36157 ft 471 kts 253°
2026-05-04 13:32 29.81206 149.27234 36167 ft 471 kts 253°
2026-05-04 13:33 29.79319 149.20027 36156 ft 470 kts 253°
2026-05-04 13:33 29.77428 149.12823 36154 ft 470 kts 253°
2026-05-04 13:34 29.75530 149.05611 36157 ft 470 kts 252°
2026-05-04 13:34 29.73633 148.98418 36164 ft 470 kts 252°
2026-05-04 13:35 29.70784 148.87648 36150 ft 470 kts 252°
2026-05-04 13:36 29.68876 148.80460 36167 ft 469 kts 252°
2026-05-04 13:36 29.66965 148.73276 36152 ft 469 kts 252°
2026-05-04 13:37 29.65051 148.66095 36152 ft 469 kts 252°
2026-05-04 13:37 29.63135 148.58928 36169 ft 469 kts 252°
2026-05-04 13:38 29.61225 148.51798 36163 ft 468 kts 252°
2026-05-04 13:38 29.59303 148.44644 36150 ft 468 kts 252°
2026-05-04 13:39 29.57378 148.37492 36150 ft 468 kts 252°
2026-05-04 13:39 29.55450 148.30346 36156 ft 467 kts 252°
2026-05-04 13:40 29.53536 148.23270 36148 ft 467 kts 252°
2026-05-04 13:40 29.51609 148.16161 36151 ft 467 kts 252°
2026-05-04 13:41 29.49671 148.09032 36149 ft 466 kts 252°
2026-05-04 13:41 29.47735 148.01925 36148 ft 466 kts 252°
2026-05-04 13:42 29.44824 147.91267 36146 ft 466 kts 252°
2026-05-04 13:42 29.42893 147.84222 36147 ft 465 kts 252°
2026-05-04 13:43 29.40948 147.77136 36160 ft 465 kts 252°
2026-05-04 13:43 29.39001 147.70062 36143 ft 465 kts 252°
2026-05-04 13:44 29.37048 147.62985 36145 ft 464 kts 252°
2026-05-04 13:44 29.35097 147.55928 36143 ft 464 kts 252°
2026-05-04 13:45 29.33154 147.48916 36144 ft 463 kts 252°
2026-05-04 13:45 29.31197 147.41871 36145 ft 463 kts 252°
2026-05-04 13:46 29.29236 147.34829 36144 ft 463 kts 251°
2026-05-04 13:46 29.27275 147.27802 36142 ft 462 kts 251°
2026-05-04 13:47 29.25326 147.20830 36140 ft 462 kts 251°
2026-05-04 13:47 29.23363 147.13826 36141 ft 462 kts 251°
2026-05-04 13:48 29.21396 147.06824 36139 ft 462 kts 251°
2026-05-04 13:48 29.19426 146.99827 36139 ft 461 kts 251°
2026-05-04 13:49 29.17786 146.94014 36139 ft 461 kts 251°
2026-05-04 13:49 29.15490 146.85894 36143 ft 461 kts 251°
2026-05-04 13:50 29.13832 146.80045 36140 ft 461 kts 251°
2026-05-04 13:50 29.11530 146.71936 36137 ft 461 kts 251°
2026-05-04 13:51 29.09882 146.66148 36137 ft 461 kts 251°
2026-05-04 13:51 29.07893 146.59174 36136 ft 460 kts 251°
2026-05-04 13:52 29.04910 146.48741 36139 ft 460 kts 251°
2026-05-04 13:53 29.02928 146.41832 36137 ft 460 kts 251°
2026-05-04 13:53 29.00921 146.34847 36135 ft 459 kts 251°
2026-05-04 13:54 28.97934 146.24480 36137 ft 459 kts 251°
2026-05-04 13:55 28.94929 146.14086 36135 ft 459 kts 251°
2026-05-04 13:55 28.91935 146.03764 36135 ft 458 kts 251°
2026-05-04 13:56 28.89925 145.96853 36130 ft 458 kts 251°
2026-05-04 13:57 28.86908 145.86504 36133 ft 458 kts 251°
2026-05-04 13:58 28.82886 145.72763 36126 ft 457 kts 250°
2026-05-04 13:58 28.79852 145.62436 36129 ft 457 kts 250°
2026-05-04 13:59 28.77828 145.55564 36130 ft 457 kts 250°
2026-05-04 14:00 28.74801 145.45313 36130 ft 456 kts 250°
2026-05-04 14:00 28.71757 145.35037 36132 ft 456 kts 250°
2026-05-04 14:01 28.69720 145.28182 36127 ft 456 kts 250°
2026-05-04 14:02 28.66669 145.17934 36129 ft 456 kts 250°
2026-05-04 14:02 28.64627 145.11095 36126 ft 456 kts 250°
2026-05-04 14:03 28.62594 145.04300 36124 ft 456 kts 250°
2026-05-04 14:03 28.60545 144.97465 36126 ft 456 kts 250°
2026-05-04 14:04 28.57464 144.87216 36124 ft 456 kts 250°
2026-05-04 14:04 28.55405 144.80382 36125 ft 456 kts 250°
2026-05-04 14:05 28.52318 144.70164 36125 ft 457 kts 250°
2026-05-04 14:06 28.50249 144.63333 36123 ft 457 kts 250°
2026-05-04 14:06 28.48176 144.56501 36122 ft 457 kts 250°
2026-05-04 14:07 28.46098 144.49670 36121 ft 457 kts 250°
2026-05-04 14:07 28.44031 144.42885 36121 ft 457 kts 250°
2026-05-04 14:08 28.41949 144.36066 36123 ft 457 kts 250°
2026-05-04 14:08 28.39860 144.29240 36119 ft 457 kts 250°
2026-05-04 14:09 28.36730 144.19035 36122 ft 457 kts 250°
2026-05-04 14:10 28.33586 144.08817 36119 ft 457 kts 250°
2026-05-04 14:10 28.31482 144.01997 36118 ft 457 kts 250°
2026-05-04 14:11 28.29379 143.95191 36117 ft 457 kts 250°
2026-05-04 14:11 28.26216 143.84983 36118 ft 457 kts 250°
2026-05-04 14:12 28.24102 143.78176 36116 ft 457 kts 250°
2026-05-04 14:13 28.20940 143.68021 36115 ft 457 kts 250°
2026-05-04 14:13 28.18816 143.61220 36116 ft 457 kts 250°
2026-05-04 14:14 28.16687 143.54410 36115 ft 457 kts 250°
2026-05-04 14:14 28.13485 143.44200 36114 ft 457 kts 250°
2026-05-04 14:15 28.09225 143.30660 36112 ft 458 kts 250°
2026-05-04 14:16 28.06008 143.20468 36112 ft 458 kts 250°
2026-05-04 14:17 28.02783 143.10284 36110 ft 458 kts 250°
2026-05-04 14:18 27.99561 143.00138 36109 ft 458 kts 250°
2026-05-04 14:19 27.95235 142.86559 36111 ft 458 kts 250°
2026-05-04 14:19 27.93065 142.79769 36110 ft 458 kts 250°
2026-05-04 14:20 27.90905 142.73024 36107 ft 459 kts 250°
2026-05-04 14:20 27.88729 142.66241 36108 ft 459 kts 250°
2026-05-04 14:21 27.85468 142.56100 36106 ft 459 kts 250°
2026-05-04 14:21 27.83280 142.49313 36105 ft 459 kts 250°
2026-05-04 14:22 27.81093 142.42541 36105 ft 459 kts 250°
2026-05-04 14:22 27.78915 142.35809 36105 ft 459 kts 250°
2026-05-04 14:23 27.75625 142.25665 36105 ft 459 kts 250°
2026-05-04 14:24 27.73425 142.18898 36098 ft 458 kts 250°
2026-05-04 14:24 27.71225 142.12143 36105 ft 458 kts 250°
2026-05-04 14:25 27.69020 142.05386 36101 ft 458 kts 250°
2026-05-04 14:25 27.65727 141.95320 36099 ft 458 kts 250°
2026-05-04 14:26 27.63516 141.88578 36098 ft 458 kts 250°
2026-05-04 14:26 27.61305 141.81846 36098 ft 457 kts 250°
2026-05-04 14:27 27.59085 141.75104 36098 ft 457 kts 250°
2026-05-04 14:27 27.56870 141.68386 36098 ft 457 kts 250°
2026-05-04 14:28 27.54664 141.61707 36096 ft 457 kts 250°
2026-05-04 14:28 27.52443 141.54995 36096 ft 457 kts 250°
2026-05-04 14:29 27.47993 141.41587 36094 ft 457 kts 250°
2026-05-04 14:30 27.45760 141.34879 36096 ft 457 kts 250°
2026-05-04 14:31 27.42412 141.24841 36095 ft 457 kts 250°
2026-05-04 14:32 27.37946 141.11495 36093 ft 457 kts 250°
2026-05-04 14:32 27.35702 141.04806 36093 ft 457 kts 250°
2026-05-04 14:33 27.33453 140.98116 36092 ft 457 kts 250°
2026-05-04 14:33 27.31202 140.91432 36090 ft 457 kts 250°
2026-05-04 14:34 27.28946 140.84746 36090 ft 457 kts 250°
2026-05-04 14:34 27.26703 140.78111 36091 ft 457 kts 250°
2026-05-04 14:35 27.24442 140.71433 36089 ft 457 kts 250°
2026-05-04 14:35 27.22174 140.64748 36089 ft 457 kts 250°
2026-05-04 14:36 27.19905 140.58070 36087 ft 457 kts 250°
2026-05-04 14:36 27.17648 140.51442 36091 ft 457 kts 250°
2026-05-04 14:37 27.15376 140.44780 36088 ft 457 kts 250°
2026-05-04 14:37 27.13093 140.38096 36088 ft 457 kts 250°
2026-05-04 14:38 27.10811 140.31429 36089 ft 457 kts 250°
2026-05-04 14:38 27.08908 140.25879 36087 ft 457 kts 250°
2026-05-04 14:39 27.06619 140.19216 36085 ft 457 kts 250°
2026-05-04 14:39 27.04342 140.12594 36086 ft 457 kts 250°
2026-05-04 14:40 27.00922 140.02598 36080 ft 457 kts 252°
2026-05-04 14:40 26.99575 139.95644 36081 ft 456 kts 262°
2026-05-04 14:41 26.98809 139.88592 36080 ft 456 kts 264°
2026-05-04 14:42 26.97439 139.74509 36084 ft 455 kts 264°
2026-05-04 14:42 26.96728 139.67445 36082 ft 455 kts 263°
2026-05-04 14:43 26.96009 139.60402 36086 ft 455 kts 263°
2026-05-04 14:43 26.95286 139.53360 36083 ft 454 kts 263°
2026-05-04 14:44 26.94565 139.46372 36081 ft 454 kts 263°
2026-05-04 14:44 26.93836 139.39336 36081 ft 454 kts 263°
2026-05-04 14:45 26.93105 139.32308 36077 ft 453 kts 263°
2026-05-04 14:45 26.92376 139.25337 36077 ft 453 kts 263°
2026-05-04 14:46 26.91639 139.18324 36078 ft 452 kts 263°
2026-05-04 14:46 26.90901 139.11329 36078 ft 452 kts 263°
2026-05-04 14:47 26.90159 139.04337 36078 ft 451 kts 263°
2026-05-04 14:47 26.89420 138.97401 36077 ft 451 kts 263°
2026-05-04 14:48 26.88672 138.90423 36082 ft 450 kts 263°
2026-05-04 14:48 26.87924 138.83464 36082 ft 450 kts 263°
2026-05-04 14:49 26.87172 138.76513 36079 ft 449 kts 263°
2026-05-04 14:49 26.86417 138.69563 36079 ft 449 kts 263°
2026-05-04 14:50 26.85660 138.62623 36081 ft 449 kts 263°
2026-05-04 14:50 26.84900 138.55689 36081 ft 448 kts 263°
2026-05-04 14:51 26.84140 138.48789 36084 ft 448 kts 263°
2026-05-04 14:51 26.83374 138.41868 36083 ft 448 kts 263°
2026-05-04 14:52 26.82606 138.34956 36081 ft 447 kts 263°
2026-05-04 14:52 26.81834 138.28039 36082 ft 447 kts 262°
2026-05-04 14:53 26.81065 138.21182 36081 ft 446 kts 262°
2026-05-04 14:53 26.80289 138.14288 36083 ft 446 kts 262°
2026-05-04 14:54 26.79508 138.07392 36085 ft 446 kts 262°
2026-05-04 14:54 26.78726 138.00509 36082 ft 445 kts 262°
2026-05-04 14:55 26.77941 137.93631 36084 ft 445 kts 262°
2026-05-04 14:55 26.77158 137.86793 36084 ft 445 kts 262°
2026-05-04 14:56 26.76368 137.79935 36089 ft 444 kts 262°
2026-05-04 14:56 26.75575 137.73072 36088 ft 444 kts 262°
2026-05-04 14:57 26.74784 137.66266 36082 ft 443 kts 262°
2026-05-04 14:57 26.73987 137.59425 36083 ft 442 kts 262°
2026-05-04 14:58 26.73186 137.52591 36087 ft 442 kts 262°
2026-05-04 14:58 26.72384 137.45769 36086 ft 442 kts 262°
2026-05-04 14:59 26.71584 137.38991 36087 ft 441 kts 262°
2026-05-04 15:00 26.70371 137.28773 36088 ft 441 kts 262°
2026-05-04 15:00 26.69559 137.21966 36085 ft 441 kts 262°
2026-05-04 15:01 26.68342 137.11823 36082 ft 441 kts 262°
2026-05-04 15:01 26.67523 137.05025 36089 ft 440 kts 262°
2026-05-04 15:02 26.66701 136.98242 36088 ft 440 kts 262°
2026-05-04 15:02 26.65877 136.91462 36086 ft 440 kts 262°
2026-05-04 15:03 26.65053 136.84708 36087 ft 440 kts 262°
2026-05-04 15:03 26.64223 136.77928 36087 ft 439 kts 262°
2026-05-04 15:04 26.63390 136.71161 36086 ft 439 kts 262°
2026-05-04 15:04 26.62559 136.64430 36087 ft 439 kts 262°
2026-05-04 15:05 26.61720 136.57667 36085 ft 439 kts 262°
2026-05-04 15:05 26.60878 136.50899 36087 ft 439 kts 261°
2026-05-04 15:06 26.60034 136.44147 36086 ft 439 kts 261°
2026-05-04 15:07 26.58767 136.34053 36087 ft 438 kts 261°
2026-05-04 15:07 26.57917 136.27319 36090 ft 438 kts 261°
2026-05-04 15:08 26.57062 136.20570 36089 ft 438 kts 261°
2026-05-04 15:08 26.56205 136.13833 36085 ft 438 kts 261°
2026-05-04 15:09 26.55346 136.07109 36086 ft 438 kts 261°
2026-05-04 15:09 26.54488 136.00411 36088 ft 438 kts 261°
2026-05-04 15:10 26.53188 135.90312 36086 ft 437 kts 261°
2026-05-04 15:11 26.51882 135.80228 36087 ft 437 kts 261°
2026-05-04 15:11 26.51014 135.73559 36084 ft 437 kts 261°
2026-05-04 15:12 26.50138 135.66850 36084 ft 437 kts 261°
2026-05-04 15:12 26.49257 135.60134 36083 ft 436 kts 261°
2026-05-04 15:13 26.48374 135.53420 36086 ft 436 kts 261°
2026-05-04 15:13 26.47488 135.46716 36083 ft 436 kts 261°
2026-05-04 15:14 26.46607 135.40061 36084 ft 436 kts 261°
2026-05-04 15:14 26.45715 135.33361 36086 ft 436 kts 261°
2026-05-04 15:15 26.44822 135.26670 36088 ft 436 kts 261°
2026-05-04 15:15 26.43923 135.19962 36088 ft 436 kts 260°
2026-05-04 15:16 26.42572 135.09929 36089 ft 436 kts 260°
2026-05-04 15:17 26.41220 134.99935 36092 ft 436 kts 260°
2026-05-04 15:17 26.39857 134.89918 36092 ft 436 kts 260°
2026-05-04 15:18 26.38943 134.83231 36093 ft 435 kts 260°
2026-05-04 15:19 26.37573 134.73253 36095 ft 435 kts 260°
2026-05-04 15:19 26.36190 134.63234 36093 ft 435 kts 260°
2026-05-04 15:20 26.35265 134.56561 36095 ft 435 kts 260°
2026-05-04 15:20 26.34338 134.49896 36091 ft 435 kts 260°
2026-05-04 15:21 26.33408 134.43227 36095 ft 435 kts 260°
2026-05-04 15:22 26.32012 134.33269 36093 ft 435 kts 260°
2026-05-04 15:22 26.30602 134.23267 36094 ft 434 kts 260°
2026-05-04 15:23 26.29667 134.16657 36094 ft 434 kts 260°
2026-05-04 15:23 26.28721 134.09998 36093 ft 434 kts 260°
2026-05-04 15:24 26.26827 133.96724 36093 ft 434 kts 260°
2026-05-04 15:25 26.25874 133.90082 36097 ft 434 kts 260°
2026-05-04 15:26 26.24436 133.80099 36097 ft 434 kts 260°
2026-05-04 15:26 26.23156 133.71257 36095 ft 434 kts 260°
2026-05-04 15:27 26.21708 133.61298 36098 ft 434 kts 260°
2026-05-04 15:28 26.20253 133.51345 36096 ft 434 kts 260°
2026-05-04 15:29 26.18796 133.41422 36097 ft 433 kts 260°
2026-05-04 15:30 26.15373 133.18309 36097 ft 432 kts 259°
2026-05-04 15:31 26.13894 133.08401 36098 ft 432 kts 259°
2026-05-04 15:32 26.11420 132.91932 36101 ft 432 kts 259°
2026-05-04 15:34 26.08920 132.75426 36101 ft 432 kts 259°
2026-05-04 15:34 26.07420 132.65583 36102 ft 432 kts 259°
2026-05-04 15:35 26.05907 132.55698 36104 ft 431 kts 259°
2026-05-04 15:36 26.04395 132.45875 36103 ft 431 kts 259°
2026-05-04 15:36 26.03379 132.39295 36106 ft 431 kts 259°
2026-05-04 15:37 26.02361 132.32725 36104 ft 431 kts 259°
2026-05-04 15:37 26.01340 132.26155 36106 ft 431 kts 259°
2026-05-04 15:38 26.00320 132.19610 36107 ft 431 kts 259°
2026-05-04 15:38 25.99295 132.13052 36105 ft 431 kts 259°
2026-05-04 15:39 25.98264 132.06478 36105 ft 431 kts 259°
2026-05-04 15:40 25.96715 131.96638 36105 ft 430 kts 259°
2026-05-04 15:40 25.95685 131.90121 36108 ft 430 kts 259°
2026-05-04 15:41 25.94645 131.83564 36109 ft 430 kts 259°
2026-05-04 15:41 25.93606 131.77024 36111 ft 430 kts 259°
2026-05-04 15:42 25.92563 131.70486 36114 ft 429 kts 259°
2026-05-04 15:42 25.91520 131.63961 36113 ft 429 kts 259°
2026-05-04 15:43 25.90476 131.57457 36111 ft 429 kts 259°
2026-05-04 15:43 25.89428 131.50943 36114 ft 429 kts 259°
2026-05-04 15:44 25.88376 131.44423 36113 ft 429 kts 259°
2026-05-04 15:44 25.87320 131.37901 36114 ft 429 kts 259°
2026-05-04 15:45 25.86263 131.31384 36114 ft 428 kts 259°
2026-05-04 15:45 25.85661 131.24847 36117 ft 430 kts 269°
2026-05-04 15:46 25.85987 131.18221 36116 ft 430 kts 272°
2026-05-04 15:46 25.86469 131.11580 36118 ft 430 kts 272°
2026-05-04 15:47 25.86962 131.04961 36116 ft 430 kts 272°
2026-05-04 15:47 25.87437 130.98334 36121 ft 430 kts 272°
2026-05-04 15:48 25.87898 130.91716 36117 ft 429 kts 272°
2026-05-04 15:48 25.88577 130.81824 36116 ft 429 kts 272°
2026-05-04 15:49 25.89026 130.75259 36124 ft 428 kts 272°
2026-05-04 15:49 25.89477 130.68653 36120 ft 428 kts 272°
2026-05-04 15:50 25.89923 130.62065 36124 ft 428 kts 272°
2026-05-04 15:50 25.90362 130.55464 36122 ft 427 kts 272°
2026-05-04 15:51 25.90795 130.48935 36123 ft 427 kts 272°
2026-05-04 15:51 25.91230 130.42350 36122 ft 426 kts 272°
2026-05-04 15:52 25.91662 130.35774 36124 ft 426 kts 272°
2026-05-04 15:52 25.92090 130.29202 36126 ft 426 kts 272°
2026-05-04 15:53 25.92512 130.22681 36125 ft 426 kts 272°
2026-05-04 15:53 25.92934 130.16113 36123 ft 426 kts 272°
2026-05-04 15:54 25.93353 130.09542 36126 ft 425 kts 271°
2026-05-04 15:54 25.93769 130.02980 36129 ft 425 kts 271°
2026-05-04 15:55 25.94181 129.96436 36129 ft 425 kts 271°
2026-05-04 15:55 25.94588 129.89915 36129 ft 425 kts 271°
2026-05-04 15:56 25.94994 129.83363 36129 ft 424 kts 271°
2026-05-04 15:56 25.95397 129.76813 36129 ft 424 kts 271°
2026-05-04 15:57 25.95794 129.70308 36128 ft 424 kts 271°
2026-05-04 15:57 25.96190 129.63775 36125 ft 424 kts 271°
2026-05-04 15:58 25.96584 129.57233 36133 ft 424 kts 271°
2026-05-04 15:58 25.96974 129.50696 36131 ft 423 kts 271°
2026-05-04 15:59 25.97368 129.44194 36129 ft 423 kts 272°
2026-05-04 15:59 25.98166 129.37692 36131 ft 425 kts 276°
2026-05-04 16:00 25.99165 129.31223 36133 ft 425 kts 276°
2026-05-04 16:00 26.00106 129.24780 36132 ft 424 kts 276°
2026-05-04 16:01 26.00993 129.18294 36137 ft 424 kts 275°
2026-05-04 16:01 26.01860 129.11815 36136 ft 423 kts 275°
2026-05-04 16:02 26.02723 129.05336 36138 ft 423 kts 275°
2026-05-04 16:03 26.04012 128.95656 36136 ft 423 kts 275°
2026-05-04 16:03 26.04873 128.89170 36136 ft 424 kts 275°
2026-05-04 16:04 26.05732 128.82679 36134 ft 424 kts 275°
2026-05-04 16:04 26.07009 128.72976 36136 ft 424 kts 275°
2026-05-04 16:05 26.07859 128.66493 36135 ft 424 kts 275°
2026-05-04 16:06 26.09129 128.56761 36139 ft 424 kts 275°
2026-05-04 16:07 26.10808 128.43811 36141 ft 424 kts 275°
2026-05-04 16:08 26.12481 128.30814 36146 ft 424 kts 275°
2026-05-04 16:09 26.14549 128.14621 36142 ft 424 kts 275°
2026-05-04 16:10 26.16195 128.01626 36151 ft 423 kts 275°
2026-05-04 16:11 26.17826 127.88655 36158 ft 424 kts 275°
2026-05-04 16:12 26.19925 127.69146 36135 ft 420 kts 266°
2026-05-04 16:13 26.18985 127.62768 36124 ft 418 kts 252°
2026-05-04 16:13 26.16485 127.56929 36128 ft 421 kts 240°
2026-05-04 16:14 26.09984 127.46102 36133 ft 423 kts 238°
2026-05-04 16:16 26.02312 127.33444 36150 ft 424 kts 238°
2026-05-04 16:17 25.94081 127.19823 36146 ft 424 kts 238°
2026-05-04 16:18 25.87494 127.08960 36146 ft 425 kts 238°
2026-05-04 16:19 25.79206 126.95330 36139 ft 426 kts 238°
2026-05-04 16:20 25.70917 126.81710 36136 ft 427 kts 238°
2026-05-04 16:22 25.62618 126.68032 36132 ft 428 kts 238°
2026-05-04 16:23 25.52628 126.51637 36130 ft 429 kts 238°
2026-05-04 16:25 25.42628 126.35130 36126 ft 431 kts 238°
2026-05-04 16:26 25.30935 126.15878 36124 ft 432 kts 238°
2026-05-04 16:28 25.22525 126.02095 36119 ft 433 kts 238°
2026-05-04 16:29 25.10723 125.82808 36117 ft 435 kts 238°
2026-05-04 16:31 25.02242 125.69013 36116 ft 436 kts 238°
2026-05-04 16:32 24.92028 125.52432 36107 ft 437 kts 238°
2026-05-04 16:33 24.85174 125.41346 36104 ft 438 kts 238°
2026-05-04 16:34 24.80015 125.33020 36102 ft 438 kts 238°
2026-05-04 16:35 24.69598 125.16461 36101 ft 439 kts 237°
2026-05-04 16:36 24.64366 125.08212 36104 ft 440 kts 237°
2026-05-04 16:37 24.59114 124.99934 36104 ft 440 kts 237°
2026-05-04 16:38 24.52114 124.88925 36099 ft 441 kts 237°
2026-05-04 16:39 24.43309 124.75111 36096 ft 442 kts 237°
2026-05-04 16:40 24.36270 124.64097 36095 ft 443 kts 237°
2026-05-04 16:41 24.27411 124.50270 36085 ft 444 kts 237°
2026-05-04 16:43 24.18533 124.36451 36082 ft 445 kts 237°
2026-05-04 16:43 24.13177 124.28132 36083 ft 445 kts 237°
2026-05-04 16:45 24.02431 124.11486 36082 ft 447 kts 237°
2026-05-04 16:46 23.93467 123.97623 36084 ft 448 kts 237°
2026-05-04 16:47 23.86464 123.86308 36082 ft 449 kts 238°
2026-05-04 16:48 23.79449 123.75025 36078 ft 450 kts 237°
2026-05-04 16:49 23.72372 123.63701 36074 ft 451 kts 237°
2026-05-04 16:50 23.65294 123.52399 36078 ft 453 kts 237°
2026-05-04 16:51 23.59953 123.43887 36076 ft 453 kts 237°
2026-05-04 16:52 23.52806 123.32520 36075 ft 454 kts 237°
2026-05-04 16:53 23.47436 123.23994 36077 ft 455 kts 237°
2026-05-04 16:54 23.40269 123.12640 36078 ft 456 kts 237°
2026-05-04 16:55 23.29472 122.95591 36072 ft 457 kts 237°
2026-05-04 16:56 23.20430 122.81345 36077 ft 458 kts 237°
2026-05-04 16:57 23.15012 122.72834 36068 ft 458 kts 238°
2026-05-04 16:58 23.07740 122.61431 36068 ft 458 kts 238°
2026-05-04 17:00 22.96845 122.44395 36071 ft 458 kts 238°
2026-05-04 17:01 22.87754 122.30222 36063 ft 458 kts 238°
2026-05-04 17:02 22.81077 122.19837 36068 ft 458 kts 238°
2026-05-04 17:03 22.75628 122.11378 36070 ft 457 kts 238°
2026-05-04 17:03 22.70168 122.02915 36065 ft 457 kts 238°
2026-05-04 17:04 22.62876 121.91633 36067 ft 456 kts 237°
2026-05-04 17:05 22.55613 121.80422 36059 ft 455 kts 237°
2026-05-04 17:06 22.50229 121.72125 36061 ft 455 kts 237°
2026-05-04 17:07 22.45692 121.65143 36058 ft 455 kts 237°
2026-05-04 17:07 22.41433 121.58598 36059 ft 455 kts 237°
2026-05-04 17:08 22.35959 121.50197 36057 ft 460 kts 237°
2026-05-04 17:09 22.32266 121.44538 36054 ft 460 kts 237°
2026-05-04 17:09 22.28574 121.38888 36056 ft 460 kts 237°
2026-05-04 17:10 22.19356 121.24801 36049 ft 460 kts 237°
2026-05-04 17:11 22.15647 121.19144 36046 ft 461 kts 237°
2026-05-04 17:12 22.10079 121.10663 36044 ft 461 kts 237°
2026-05-04 17:13 22.00819 120.96595 35429 ft 459 kts 237°
2026-05-04 17:14 21.96610 120.87470 33416 ft 455 kts 257°
2026-05-04 17:14 21.96106 120.84142 32615 ft 457 kts 265°
2026-05-04 17:14 21.96657 120.77285 30949 ft 465 kts 282°
2026-05-04 17:15 21.97735 120.73975 30150 ft 470 kts 291°
2026-05-04 17:15 22.01398 120.68120 28788 ft 474 kts 310°
2026-05-04 17:16 22.06644 120.63904 28035 ft 478 kts 328°
2026-05-04 17:16 22.16488 120.61539 28010 ft 497 kts 356°
2026-05-04 17:17 22.19967 120.61672 28014 ft 499 kts 359°
2026-05-04 17:18 22.33666 120.61983 28007 ft 466 kts 344°
2026-05-04 17:18 22.39537 120.59892 28007 ft 430 kts 331°
2026-05-04 17:19 22.44924 120.57136 28003 ft 428 kts 328°
2026-05-04 17:20 22.55569 120.51398 28005 ft 429 kts 328°
2026-05-04 17:20 22.63586 120.47155 28008 ft 429 kts 328°
2026-05-04 17:21 22.74316 120.41484 28006 ft 429 kts 328°
2026-05-04 17:22 22.79678 120.38645 28005 ft 428 kts 328°
2026-05-04 17:23 22.90352 120.32979 28036 ft 428 kts 328°
2026-05-04 17:24 22.98384 120.28703 28037 ft 428 kts 328°
2026-05-04 17:25 23.09036 120.23031 28035 ft 428 kts 328°
2026-05-04 17:25 23.14832 120.21161 28031 ft 444 kts 348°
2026-05-04 17:26 23.21050 120.21457 27619 ft 448 kts
2026-05-04 17:26 23.30265 120.22599 26169 ft 442 kts
2026-05-04 17:27 23.36346 120.23333 25316 ft 436 kts
2026-05-04 17:27 23.42334 120.24050 24465 ft 430 kts
2026-05-04 17:28 23.48256 120.24758 23627 ft 425 kts
2026-05-04 17:29 23.56999 120.25805 22134 ft 417 kts
2026-05-04 17:29 23.65520 120.26827 20748 ft 408 kts
2026-05-04 17:30 23.73830 120.28553 19419 ft 406 kts 13°
2026-05-04 17:31 23.79192 120.30423 18422 ft 404 kts 13°
2026-05-04 17:31 23.87228 120.33210 16563 ft 406 kts 13°
2026-05-04 17:32 23.92604 120.35073 15362 ft 405 kts 13°
2026-05-04 17:33 24.00645 120.37862 13624 ft 402 kts 13°
2026-05-04 17:33 24.03306 120.38785 12990 ft 400 kts 13°
2026-05-04 17:34 24.10933 120.41446 12468 ft 357 kts 13°
2026-05-04 17:34 24.13216 120.42242 12460 ft 340 kts 13°
2026-05-04 17:35 24.19786 120.44520 12294 ft 329 kts 12°
2026-05-04 17:35 24.24139 120.46032 11583 ft 324 kts 13°
2026-05-04 17:35 24.26274 120.46776 11238 ft 321 kts 13°
2026-05-04 17:36 24.28382 120.47510 10886 ft 319 kts 13°
2026-05-04 17:36 24.30495 120.48246 10527 ft 317 kts 13°
2026-05-04 17:36 24.32587 120.48975 10189 ft 314 kts 13°
2026-05-04 17:36 24.34666 120.49700 10036 ft 313 kts 13°
2026-05-04 17:37 24.36746 120.50425 10012 ft 314 kts 13°
2026-05-04 17:37 24.38826 120.51151 10012 ft 314 kts 13°
2026-05-04 17:37 24.40910 120.51878 10012 ft 314 kts 13°
2026-05-04 17:37 24.42964 120.52595 10012 ft 314 kts 13°
2026-05-04 17:38 24.45098 120.53338 10020 ft 331 kts 13°
2026-05-04 17:38 24.47342 120.54117 10011 ft 340 kts 13°
2026-05-04 17:38 24.49607 120.54911 10008 ft 343 kts 14°
2026-05-04 17:38 24.51891 120.55712 10004 ft 343 kts 14°
2026-05-04 17:39 24.56444 120.57309 9952 ft 344 kts 14°
2026-05-04 17:39 24.58712 120.58102 9407 ft 350 kts 14°
2026-05-04 17:39 24.61017 120.58909 9030 ft 343 kts 14°
2026-05-04 17:40 24.63277 120.59703 8654 ft 337 kts 14°
2026-05-04 17:40 24.65494 120.60481 8233 ft 333 kts 15°
2026-05-04 17:40 24.67622 120.61457 7754 ft 333 kts 30°
2026-05-04 17:40 24.69440 120.63041 7341 ft 330 kts 41°
2026-05-04 17:41 24.71109 120.64708 6931 ft 327 kts 41°
2026-05-04 17:41 24.72785 120.66383 6495 ft 325 kts 41°
2026-05-04 17:41 24.74458 120.68043 6108 ft 321 kts 41°
2026-05-04 17:41 24.76115 120.69679 5989 ft 320 kts 41°
2026-05-04 17:42 24.77775 120.71317 5984 ft 321 kts 41°
2026-05-04 17:42 24.79446 120.72964 5985 ft 322 kts 41°
2026-05-04 17:42 24.81111 120.74603 5981 ft 321 kts 41°
2026-05-04 17:42 24.82772 120.76239 5775 ft 319 kts 41°
2026-05-04 17:43 24.84407 120.77850 5523 ft 309 kts 41°
2026-05-04 17:43 24.85985 120.79405 5297 ft 299 kts 41°
2026-05-04 17:43 24.87499 120.80897 5039 ft 293 kts 41°
2026-05-04 17:43 24.89019 120.82392 4673 ft 291 kts 42°
2026-05-04 17:44 24.90504 120.83897 4310 ft 288 kts 45°
2026-05-04 17:44 24.91584 120.85708 4032 ft 283 kts 72°
2026-05-04 17:44 24.91822 120.87794 3975 ft 269 kts 94°
2026-05-04 17:44 24.91720 120.89845 3972 ft 267 kts 96°
2026-05-04 17:45 24.91601 120.91890 3979 ft 268 kts 95°
2026-05-04 17:45 24.91489 120.93919 3982 ft 268 kts 95°
2026-05-04 17:45 24.91381 120.95961 3978 ft 263 kts 95°
2026-05-04 17:45 24.91283 120.97915 3980 ft 249 kts 95°
2026-05-04 17:46 24.91187 120.99809 3986 ft 247 kts 95°
2026-05-04 17:46 24.91093 121.01701 3989 ft 247 kts 94°
2026-05-04 17:46 24.91327 121.03580 3794 ft 253 kts 68°
2026-05-04 17:46 24.92338 121.05163 3522 ft 250 kts 47°
2026-05-04 17:47 24.93498 121.06535 3402 ft 240 kts 47°
2026-05-04 17:47 24.94563 121.07804 3561 ft 213 kts 46°
2026-05-04 17:47 24.95606 121.08866 3519 ft 198 kts 38°
2026-05-04 17:47 24.96632 121.09730 3575 ft 173 kts 34°
2026-05-04 17:48 24.97614 121.10496 3598 ft 187 kts 38°
2026-05-04 17:48 24.98693 121.11514 3601 ft 219 kts 43°
2026-05-04 17:48 24.99798 121.12633 3572 ft 205 kts 44°
2026-05-04 17:48 25.00772 121.13670 3427 ft 186 kts 44°
2026-05-04 17:49 25.01680 121.14645 3116 ft 177 kts 45°
2026-05-04 17:49 25.02514 121.15690 2851 ft 183 kts 47°
2026-05-04 17:49 25.03097 121.16339 2546 ft 179 kts 46°
2026-05-04 17:49 25.03954 121.17331 2050 ft 179 kts 51°
2026-05-04 17:50 25.04773 121.18337 1590 ft 172 kts 54°
2026-05-04 17:50 25.05765 121.19635 1086 ft 162 kts 56°
2026-05-04 17:50 25.06488 121.20563 674 ft 156 kts 54°
2026-05-04 17:50 25.07174 121.21460 310 ft 149 kts 52°
2026-05-04 17:51 25.07627 121.22006 151 ft 140 kts 53°
2026-05-04 17:51 25.08200 121.22758 87 ft 97 kts 50°
2026-05-04 17:51 25.08432 121.23151 86 ft 44 kts 74°
2026-05-04 17:51 25.08464 121.23299 86 ft 0 kts 77°
2026-05-04 17:53 25.08465 121.23299 83 ft 1 kts 77°
2026-05-04 17:53 25.08473 121.23340 84 ft 20 kts 77°
2026-05-04 17:53 25.08448 121.23500 87 ft 19 kts 93°
2026-05-04 17:54 25.08503 121.23627 86 ft 19 kts 50°
2026-05-04 17:54 25.08584 121.23733 88 ft 22 kts 49°
2026-05-04 17:54 25.08646 121.23856 86 ft 17 kts 96°
2026-05-04 17:54 25.08582 121.23955 90 ft 16 kts 132°
2026-05-04 17:55 25.08507 121.24031 94 ft 14 kts 140°
2026-05-04 17:55 25.08441 121.24091 95 ft 11 kts 140°
2026-05-04 17:55 25.08372 121.24156 97 ft 23 kts 140°
2026-05-04 17:55 25.08258 121.24263 105 ft 17 kts 139°
2026-05-04 17:56 25.08177 121.24315 106 ft 10 kts 180°
2026-05-04 17:56 25.08122 121.24286 107 ft 8 kts 215°
2026-05-04 17:56 25.08036 121.24189 108 ft 28 kts 229°
2026-05-04 17:56 25.07930 121.24053 108 ft 21 kts 229°
2026-05-04 17:57 25.07838 121.23938 109 ft 19 kts 228°
2026-05-04 17:57 25.07756 121.23833 109 ft 17 kts 229°
2026-05-04 17:57 25.07684 121.23742 110 ft 15 kts 229°
2026-05-04 17:57 25.07582 121.23612 110 ft 40 kts 229°
2026-05-04 17:58 25.07476 121.23454 111 ft 11 kts 271°
2026-05-04 17:58 25.07523 121.23396 109 ft 11 kts 324°
2026-05-04 17:58 25.07544 121.23377 108 ft 0 kts 321°